Time,TemperatureF,DewpointF,PressureIn,WindDirection,WindDirectionDegrees,WindSpeedMPH,WindSpeedGustMPH,Humidity,HourlyPrecipIn,Conditions,Clouds,dailyrainin,SoftwareType,DateUTC
2013-05-31 00:01:00,62.9,59.6,29.78,SSW,202,0.0,0.0,89,0.00,,CLR,0.00,VWS V14.01,2013-05-31 05:01:00,
2013-05-31 00:03:00,62.9,59.6,29.78,South,180,0.0,2.6,89,0.00,,CLR,0.00,VWS V14.01,2013-05-31 05:03:00,
2013-05-31 00:06:00,62.9,59.3,29.78,South,180,0.0,0.0,88,0.00,,CLR,0.00,VWS V14.01,2013-05-31 05:06:00,
2013-05-31 00:08:00,62.9,59.6,29.78,SSE,158,0.0,0.0,89,0.00,,CLR,0.00,VWS V14.01,2013-05-31 05:08:00,
2013-05-31 00:10:00,62.9,59.6,29.78,SSE,158,0.0,0.0,89,0.00,,CLR,0.00,VWS V14.01,2013-05-31 05:10:00,
2013-05-31 00:11:00,62.9,59.6,29.78,SSE,158,0.0,0.0,89,0.00,,CLR,0.00,VWS V14.01,2013-05-31 05:11:00,
2013-05-31 00:12:00,62.9,59.6,29.78,SE,135,0.0,0.0,89,0.00,,CLR,0.00,VWS V14.01,2013-05-31 05:12:00,
2013-05-31 00:13:00,62.9,59.6,29.78,South,180,0.0,0.0,89,0.00,,CLR,0.00,VWS V14.01,2013-05-31 05:13:00,
2013-05-31 00:17:00,62.9,59.6,29.78,South,180,0.0,9.2,89,0.00,,CLR,0.00,VWS V14.01,2013-05-31 05:17:00,
2013-05-31 00:18:00,62.9,59.3,29.78,South,180,2.6,2.6,88,0.00,,CLR,0.00,VWS V14.01,2013-05-31 05:18:00,
2013-05-31 00:19:00,62.9,59.6,29.78,SSE,158,2.2,2.6,89,0.00,,CLR,0.00,VWS V14.01,2013-05-31 05:19:00,
2013-05-31 00:20:00,63.1,59.8,29.78,SE,135,0.0,0.0,89,0.00,,CLR,0.00,VWS V14.01,2013-05-31 05:20:00,
2013-05-31 00:22:00,63.1,59.8,29.78,South,180,3.4,3.4,89,0.00,,CLR,0.00,VWS V14.01,2013-05-31 05:22:00,
2013-05-31 00:23:00,63.1,59.5,29.78,SE,135,0.0,3.4,88,0.00,,CLR,0.00,VWS V14.01,2013-05-31 05:23:00,
2013-05-31 00:26:00,63.1,59.5,29.78,SSW,202,0.0,0.0,88,0.00,,CLR,0.00,VWS V14.01,2013-05-31 05:26:00,
2013-05-31 00:28:00,63.1,59.8,29.78,ESE,112,0.0,0.0,89,0.00,,CLR,0.00,VWS V14.01,2013-05-31 05:28:00,
2013-05-31 00:30:00,63.1,59.5,29.78,ESE,112,2.6,2.6,88,0.00,,CLR,0.00,VWS V14.01,2013-05-31 05:30:00,
2013-05-31 00:33:00,63.1,59.5,29.77,South,180,3.0,3.0,88,0.00,,CLR,0.00,VWS V14.01,2013-05-31 05:33:00,
2013-05-31 00:34:00,63.1,59.8,29.77,SSE,158,0.0,3.0,89,0.00,,CLR,0.00,VWS V14.01,2013-05-31 05:34:00,
2013-05-31 00:35:00,63.1,59.8,29.78,SSE,158,0.0,0.0,89,0.00,,CLR,0.00,VWS V14.01,2013-05-31 05:35:00,
2013-05-31 00:36:00,63.1,59.8,29.78,South,180,0.0,0.0,89,0.00,,CLR,0.00,VWS V14.01,2013-05-31 05:36:00,
2013-05-31 00:40:00,63.3,60.0,29.78,SSE,158,0.0,0.0,89,0.00,,SCT110,0.00,VWS V14.01,2013-05-31 05:40:00,
2013-05-31 00:41:00,63.3,59.7,29.78,SE,135,0.0,0.0,88,0.00,,SCT110,0.00,VWS V14.01,2013-05-31 05:41:00,
2013-05-31 00:42:00,63.3,60.0,29.78,SSE,158,0.0,0.0,89,0.00,,SCT110,0.00,VWS V14.01,2013-05-31 05:42:00,
2013-05-31 00:44:00,63.3,59.7,29.78,SSE,158,0.0,0.0,88,0.00,,SCT110,0.00,VWS V14.01,2013-05-31 05:44:00,
2013-05-31 00:46:00,63.3,60.0,29.78,South,180,13.4,13.4,89,0.00,,SCT110,0.00,VWS V14.01,2013-05-31 05:46:00,
2013-05-31 00:47:00,63.3,60.0,29.78,SW,225,0.0,13.4,89,0.00,,SCT110,0.00,VWS V14.01,2013-05-31 05:47:00,
2013-05-31 00:48:00,63.3,59.7,29.78,SW,225,0.0,13.4,88,0.00,,SCT110,0.00,VWS V14.01,2013-05-31 05:48:00,
2013-05-31 00:51:00,63.3,60.0,29.79,SSW,202,0.0,0.0,89,0.00,,SCT110,0.00,VWS V14.01,2013-05-31 05:51:00,
2013-05-31 00:52:00,63.3,60.0,29.78,SSW,202,0.0,0.0,89,0.00,,SCT110,0.00,VWS V14.01,2013-05-31 05:52:00,
2013-05-31 00:53:00,63.3,60.0,29.78,SSE,158,3.0,3.0,89,0.00,,SCT110,0.00,VWS V14.01,2013-05-31 05:53:00,
2013-05-31 00:54:00,63.3,60.0,29.78,South,180,5.8,5.8,89,0.00,,SCT110,0.00,VWS V14.01,2013-05-31 05:54:00,
2013-05-31 00:57:00,63.3,59.7,29.78,SE,135,0.0,0.0,88,0.00,,SCT110,0.00,VWS V14.01,2013-05-31 05:57:00,
2013-05-31 00:58:00,63.3,59.7,29.78,South,180,0.0,0.0,88,0.00,,SCT110,0.00,VWS V14.01,2013-05-31 05:58:00,
2013-05-31 00:59:00,63.3,59.7,29.78,SE,135,6.6,6.6,88,0.00,,SCT110,0.00,VWS V14.01,2013-05-31 05:59:00,
2013-05-31 01:02:00,63.3,59.7,29.78,SSE,158,0.0,0.0,88,0.00,,SCT110,0.00,VWS V14.01,2013-05-31 06:02:00,
2013-05-31 01:04:00,63.3,59.7,29.78,SSE,158,0.0,0.0,88,0.00,,SCT110,0.00,VWS V14.01,2013-05-31 06:04:00,
2013-05-31 01:07:00,63.5,59.9,29.78,SSE,158,0.0,0.0,88,0.00,,SCT110,0.00,VWS V14.01,2013-05-31 06:07:00,
2013-05-31 01:08:00,63.5,59.9,29.78,South,180,4.4,4.4,88,0.00,,SCT110,0.00,VWS V14.01,2013-05-31 06:08:00,
2013-05-31 01:09:00,63.5,59.9,29.78,South,180,2.6,4.4,88,0.00,,SCT110,0.00,VWS V14.01,2013-05-31 06:09:00,
2013-05-31 01:12:00,63.5,59.9,29.78,SSE,158,0.0,0.0,88,0.00,,SCT110,0.00,VWS V14.01,2013-05-31 06:12:00,
2013-05-31 01:13:00,63.5,59.9,29.78,SW,225,0.0,0.0,88,0.00,,SCT110,0.00,VWS V14.01,2013-05-31 06:13:00,
2013-05-31 01:14:00,63.5,59.9,29.78,South,180,0.0,0.0,88,0.00,,SCT110,0.00,VWS V14.01,2013-05-31 06:14:00,
2013-05-31 01:16:00,63.6,60.0,29.78,South,180,0.0,5.2,88,0.00,,SCT110,0.00,VWS V14.01,2013-05-31 06:16:00,
2013-05-31 01:18:00,63.6,59.7,29.78,South,180,0.0,6.6,87,0.00,,SCT110,0.00,VWS V14.01,2013-05-31 06:18:00,
2013-05-31 01:20:00,63.6,59.7,29.78,SW,225,4.4,4.4,87,0.00,,SCT110,0.00,VWS V14.01,2013-05-31 06:20:00,
2013-05-31 01:21:00,63.6,59.7,29.78,South,180,9.2,9.2,87,0.00,,SCT110,0.00,VWS V14.01,2013-05-31 06:21:00,
2013-05-31 01:22:00,63.8,59.9,29.78,SW,225,0.0,0.0,87,0.00,,SCT110,0.00,VWS V14.01,2013-05-31 06:22:00,
2013-05-31 01:23:00,63.8,59.9,29.78,South,180,0.0,0.0,87,0.00,,SCT110,0.00,VWS V14.01,2013-05-31 06:23:00,
2013-05-31 01:24:00,63.8,59.9,29.78,SSE,158,2.6,2.6,87,0.00,,SCT110,0.00,VWS V14.01,2013-05-31 06:24:00,
2013-05-31 01:26:00,63.8,59.9,29.77,North,0,0.0,0.0,87,0.00,,SCT110,0.00,VWS V14.01,2013-05-31 06:26:00,
2013-05-31 01:28:00,64.0,60.1,29.78,South,180,0.0,0.0,87,0.00,,SCT110,0.00,VWS V14.01,2013-05-31 06:28:00,
2013-05-31 01:29:00,63.8,59.9,29.78,SW,225,0.0,0.0,87,0.00,,SCT110,0.00,VWS V14.01,2013-05-31 06:29:00,
2013-05-31 01:30:00,64.0,60.1,29.78,SSW,202,0.0,0.0,87,0.00,,SCT110,0.00,VWS V14.01,2013-05-31 06:30:00,
2013-05-31 01:31:00,64.0,60.1,29.78,SSE,158,8.8,8.8,87,0.00,,SCT110,0.00,VWS V14.01,2013-05-31 06:31:00,
2013-05-31 01:34:00,64.0,59.7,29.78,South,180,0.0,7.6,86,0.00,,SCT110,0.00,VWS V14.01,2013-05-31 06:34:00,
2013-05-31 01:35:00,64.0,59.7,29.78,South,180,0.0,0.0,86,0.00,,SCT110,0.00,VWS V14.01,2013-05-31 06:35:00,
2013-05-31 01:36:00,64.0,59.7,29.78,SSW,202,2.6,2.6,86,0.00,,SCT110,0.00,VWS V14.01,2013-05-31 06:36:00,
2013-05-31 01:38:00,64.0,59.7,29.78,South,180,0.0,16.4,86,0.00,,SCT110,0.00,VWS V14.01,2013-05-31 06:38:00,
2013-05-31 01:41:00,64.0,59.7,29.78,SW,225,0.0,0.0,86,0.00,,SCT110,0.00,VWS V14.01,2013-05-31 06:41:00,
2013-05-31 01:42:00,64.2,59.9,29.78,SSW,202,8.8,8.8,86,0.00,,SCT110,0.00,VWS V14.01,2013-05-31 06:42:00,
2013-05-31 01:46:00,64.0,59.7,29.78,South,180,3.0,3.0,86,0.00,,SCT110,0.00,VWS V14.01,2013-05-31 06:46:00,
2013-05-31 01:47:00,64.2,59.6,29.78,South,180,11.6,11.6,85,0.00,,SCT110,0.00,VWS V14.01,2013-05-31 06:47:00,
2013-05-31 01:48:00,64.0,59.4,29.78,SSW,202,8.8,11.6,85,0.00,,SCT110,0.00,VWS V14.01,2013-05-31 06:48:00,
2013-05-31 01:49:00,64.0,59.4,29.78,SSW,202,8.8,8.8,85,0.00,,SCT110,0.00,VWS V14.01,2013-05-31 06:49:00,
2013-05-31 01:50:00,64.2,59.6,29.78,SSE,158,0.0,8.8,85,0.00,,BKN065,0.00,VWS V14.01,2013-05-31 06:50:00,
2013-05-31 01:54:00,64.2,59.6,29.78,SSE,158,8.8,8.8,85,0.00,,BKN065,0.00,VWS V14.01,2013-05-31 06:54:00,
2013-05-31 01:55:00,64.2,59.6,29.78,SSE,158,8.8,8.8,85,0.00,,BKN065,0.00,VWS V14.01,2013-05-31 06:55:00,
2013-05-31 01:56:00,64.4,59.8,29.78,SSW,202,0.0,8.8,85,0.00,,BKN065,0.00,VWS V14.01,2013-05-31 06:56:00,
2013-05-31 02:00:00,64.4,59.8,29.78,SSE,158,0.0,7.0,85,0.00,,BKN065,0.00,VWS V14.01,2013-05-31 07:00:00,
2013-05-31 02:01:00,64.2,59.6,29.78,South,180,0.0,0.0,85,0.00,,BKN065,0.00,VWS V14.01,2013-05-31 07:01:00,
2013-05-31 02:02:00,64.2,59.6,29.78,SSW,202,0.0,0.0,85,0.00,,BKN065,0.00,VWS V14.01,2013-05-31 07:02:00,
2013-05-31 02:05:00,64.4,59.5,29.78,South,180,0.0,0.0,84,0.00,,BKN065,0.00,VWS V14.01,2013-05-31 07:05:00,
2013-05-31 02:07:00,64.4,59.5,29.78,SSE,158,8.0,8.0,84,0.00,,BKN065,0.00,VWS V14.01,2013-05-31 07:07:00,
2013-05-31 02:09:00,64.2,59.3,29.79,SSE,158,0.0,0.0,84,0.00,,BKN065,0.00,VWS V14.01,2013-05-31 07:09:00,
2013-05-31 02:10:00,64.2,59.3,29.78,SW,225,0.0,0.0,84,0.00,,BKN065,0.00,VWS V14.01,2013-05-31 07:10:00,
2013-05-31 02:14:00,64.2,59.3,29.78,South,180,0.0,0.0,84,0.00,,BKN065,0.00,VWS V14.01,2013-05-31 07:14:00,
2013-05-31 02:15:00,64.2,59.3,29.78,South,180,9.8,9.8,84,0.00,,BKN065,0.00,VWS V14.01,2013-05-31 07:15:00,
2013-05-31 02:17:00,64.2,59.3,29.78,SSE,158,4.0,4.0,84,0.00,,BKN065,0.00,VWS V14.01,2013-05-31 07:17:00,
2013-05-31 02:18:00,64.2,59.3,29.78,SSE,158,12.0,12.0,84,0.00,,BKN065,0.00,VWS V14.01,2013-05-31 07:18:00,
2013-05-31 02:20:00,64.2,59.3,29.78,SSE,158,4.4,12.0,84,0.00,,BKN065,0.00,VWS V14.01,2013-05-31 07:20:00,
2013-05-31 02:21:00,64.2,59.3,29.78,SSE,158,4.4,4.4,84,0.00,,BKN065,0.00,VWS V14.01,2013-05-31 07:21:00,
2013-05-31 02:22:00,64.2,59.3,29.79,South,180,0.0,4.4,84,0.00,,BKN065,0.00,VWS V14.01,2013-05-31 07:22:00,
2013-05-31 02:23:00,64.2,59.3,29.79,South,180,0.0,0.0,84,0.00,,BKN065,0.00,VWS V14.01,2013-05-31 07:23:00,
2013-05-31 02:24:00,64.2,59.3,29.78,South,180,4.4,5.2,84,0.00,,BKN065,0.00,VWS V14.01,2013-05-31 07:24:00,
2013-05-31 02:28:00,64.2,59.3,29.78,South,180,0.0,0.0,84,0.00,,BKN065,0.00,VWS V14.01,2013-05-31 07:28:00,
2013-05-31 02:30:00,64.2,59.3,29.78,SSE,158,2.2,2.2,84,0.00,,BKN065,0.00,VWS V14.01,2013-05-31 07:30:00,
2013-05-31 02:34:00,64.2,59.3,29.78,South,180,0.0,5.8,84,0.00,,BKN065,0.00,VWS V14.01,2013-05-31 07:34:00,
2013-05-31 02:35:00,64.2,59.3,29.78,South,180,0.0,0.0,84,0.00,,BKN065,0.00,VWS V14.01,2013-05-31 07:35:00,
2013-05-31 02:36:00,64.4,59.5,29.78,SSW,202,0.0,4.4,84,0.00,,BKN065,0.00,VWS V14.01,2013-05-31 07:36:00,
2013-05-31 02:38:00,64.0,59.1,29.78,SSE,158,2.6,2.6,84,0.00,,BKN065,0.00,VWS V14.01,2013-05-31 07:38:00,
2013-05-31 02:40:00,64.2,59.3,29.78,South,180,0.0,2.6,84,0.00,,OVC065,0.00,VWS V14.01,2013-05-31 07:40:00,
2013-05-31 02:41:00,64.2,59.3,29.78,South,180,0.0,0.0,84,0.00,,OVC065,0.00,VWS V14.01,2013-05-31 07:41:00,
2013-05-31 02:43:00,64.2,59.3,29.78,SSE,158,0.0,0.0,84,0.00,,OVC065,0.00,VWS V14.01,2013-05-31 07:43:00,
2013-05-31 02:46:00,64.2,59.3,29.78,SSE,158,0.0,10.6,84,0.00,,OVC065,0.00,VWS V14.01,2013-05-31 07:46:00,
2013-05-31 02:47:00,64.2,59.3,29.78,ESE,112,0.0,0.0,84,0.00,,OVC065,0.00,VWS V14.01,2013-05-31 07:47:00,
2013-05-31 02:49:00,64.2,59.3,29.78,ESE,112,0.0,0.0,84,0.00,,OVC065,0.00,VWS V14.01,2013-05-31 07:49:00,
2013-05-31 02:52:00,64.0,59.1,29.78,South,180,5.8,5.8,84,0.00,,OVC065,0.00,VWS V14.01,2013-05-31 07:52:00,
2013-05-31 02:54:00,64.0,59.1,29.78,South,180,8.4,8.4,84,0.00,,OVC065,0.00,VWS V14.01,2013-05-31 07:54:00,
2013-05-31 02:56:00,64.0,59.1,29.78,South,180,0.0,7.0,84,0.00,,OVC065,0.00,VWS V14.01,2013-05-31 07:56:00,
2013-05-31 02:58:00,64.0,59.1,29.78,SE,135,4.8,4.8,84,0.00,,OVC065,0.00,VWS V14.01,2013-05-31 07:58:00,
2013-05-31 02:59:00,64.0,59.1,29.78,South,180,6.2,6.2,84,0.00,,OVC065,0.00,VWS V14.01,2013-05-31 07:59:00,
2013-05-31 03:00:00,64.0,59.1,29.78,SSW,202,0.0,10.6,84,0.00,,BKN055,0.00,VWS V14.01,2013-05-31 08:00:00,
2013-05-31 03:02:00,64.0,59.4,29.78,South,180,0.0,0.0,85,0.00,,BKN055,0.00,VWS V14.01,2013-05-31 08:02:00,
2013-05-31 03:04:00,64.0,59.4,29.78,South,180,5.2,5.2,85,0.00,,BKN055,0.00,VWS V14.01,2013-05-31 08:04:00,
2013-05-31 03:06:00,64.0,59.4,29.78,SE,135,0.0,0.0,85,0.00,,BKN055,0.00,VWS V14.01,2013-05-31 08:06:00,
2013-05-31 03:09:00,64.0,59.4,29.77,SE,135,0.0,0.0,85,0.00,,BKN055,0.00,VWS V14.01,2013-05-31 08:09:00,
2013-05-31 03:10:00,64.0,59.4,29.78,SSW,202,5.8,7.6,85,0.00,,BKN055,0.00,VWS V14.01,2013-05-31 08:10:00,
2013-05-31 03:12:00,64.0,59.4,29.78,SE,135,3.0,5.8,85,0.00,,BKN055,0.00,VWS V14.01,2013-05-31 08:12:00,
2013-05-31 03:15:00,64.0,59.4,29.78,SSE,158,0.0,0.0,85,0.00,,BKN055,0.00,VWS V14.01,2013-05-31 08:15:00,
2013-05-31 03:16:00,64.0,59.4,29.78,ESE,112,1.6,1.6,85,0.00,,BKN055,0.00,VWS V14.01,2013-05-31 08:16:00,
2013-05-31 03:18:00,64.0,59.4,29.78,SSW,202,2.6,2.6,85,0.00,,BKN055,0.00,VWS V14.01,2013-05-31 08:18:00,
2013-05-31 03:22:00,64.0,59.4,29.78,South,180,8.4,8.4,85,0.00,,BKN055,0.00,VWS V14.01,2013-05-31 08:22:00,
2013-05-31 03:24:00,64.0,59.4,29.79,SSE,158,0.0,8.4,85,0.00,,BKN055,0.00,VWS V14.01,2013-05-31 08:24:00,
2013-05-31 03:25:00,64.0,59.4,29.78,South,180,9.8,9.8,85,0.00,,BKN055,0.00,VWS V14.01,2013-05-31 08:25:00,
2013-05-31 03:26:00,64.0,59.4,29.78,SSE,158,0.0,10.2,85,0.00,,BKN055,0.00,VWS V14.01,2013-05-31 08:26:00,
2013-05-31 03:28:00,64.2,59.6,29.78,South,180,0.0,0.0,85,0.00,,BKN055,0.00,VWS V14.01,2013-05-31 08:28:00,
2013-05-31 03:29:00,64.2,59.6,29.78,South,180,0.0,0.0,85,0.00,,BKN055,0.00,VWS V14.01,2013-05-31 08:29:00,
2013-05-31 03:30:00,64.0,59.4,29.78,SSW,202,7.0,7.0,85,0.00,,BKN055,0.00,VWS V14.01,2013-05-31 08:30:00,
2013-05-31 03:33:00,64.0,59.4,29.79,SW,225,0.0,0.0,85,0.00,,BKN055,0.00,VWS V14.01,2013-05-31 08:33:00,
2013-05-31 03:34:00,64.0,59.4,29.79,SW,225,0.0,0.0,85,0.00,,BKN055,0.00,VWS V14.01,2013-05-31 08:34:00,
2013-05-31 03:35:00,64.0,59.4,29.79,South,180,0.0,0.0,85,0.00,,BKN055,0.00,VWS V14.01,2013-05-31 08:35:00,
2013-05-31 03:38:00,64.0,59.4,29.78,South,180,7.6,7.6,85,0.00,,BKN055,0.00,VWS V14.01,2013-05-31 08:38:00,
2013-05-31 03:40:00,64.0,59.4,29.79,SSE,158,0.0,7.6,85,0.00,,BKN055,0.00,VWS V14.01,2013-05-31 08:40:00,
2013-05-31 03:42:00,64.0,59.4,29.78,SSE,158,0.0,0.0,85,0.00,,BKN055,0.00,VWS V14.01,2013-05-31 08:42:00,
2013-05-31 03:43:00,64.0,59.4,29.78,South,180,7.6,7.6,85,0.00,,BKN055,0.00,VWS V14.01,2013-05-31 08:43:00,
2013-05-31 03:44:00,64.0,59.4,29.78,SW,225,6.2,7.6,85,0.00,,BKN055,0.00,VWS V14.01,2013-05-31 08:44:00,
2013-05-31 03:46:00,64.0,59.4,29.78,SSW,202,3.0,3.0,85,0.00,,BKN055,0.00,VWS V14.01,2013-05-31 08:46:00,
2013-05-31 03:49:00,64.0,59.4,29.78,SSW,202,4.0,4.0,85,0.00,,BKN055,0.00,VWS V14.01,2013-05-31 08:49:00,
2013-05-31 03:50:00,64.0,59.4,29.78,SSE,158,0.0,4.0,85,0.00,,OVC020,0.00,VWS V14.01,2013-05-31 08:50:00,
2013-05-31 03:51:00,64.0,59.4,29.78,SSE,158,0.0,0.0,85,0.00,,OVC020,0.00,VWS V14.01,2013-05-31 08:51:00,
2013-05-31 03:52:00,64.0,59.4,29.78,SSW,202,0.0,12.4,85,0.00,,OVC020,0.00,VWS V14.01,2013-05-31 08:52:00,
2013-05-31 03:55:00,64.0,59.4,29.79,South,180,0.0,3.0,85,0.00,,OVC020,0.00,VWS V14.01,2013-05-31 08:55:00,
2013-05-31 03:56:00,64.0,59.4,29.79,South,180,0.0,3.0,85,0.00,,OVC020,0.00,VWS V14.01,2013-05-31 08:56:00,
2013-05-31 03:58:00,64.0,59.4,29.79,SE,135,0.0,0.0,85,0.00,,OVC020,0.00,VWS V14.01,2013-05-31 08:58:00,
2013-05-31 04:00:00,64.0,59.4,29.79,SSE,158,0.0,0.0,85,0.00,,OVC020,0.04,VWS V14.01,2013-05-31 09:00:00,
2013-05-31 04:01:00,64.0,59.4,29.79,South,180,0.0,0.0,85,0.00,,OVC020,0.00,VWS V14.01,2013-05-31 09:01:00,
2013-05-31 04:02:00,63.8,59.2,29.79,South,180,6.2,6.2,85,0.00,,OVC020,0.00,VWS V14.01,2013-05-31 09:02:00,
2013-05-31 04:06:00,63.8,59.2,29.79,South,180,0.0,5.2,85,0.00,,OVC020,0.00,VWS V14.01,2013-05-31 09:06:00,
2013-05-31 04:08:00,64.0,59.4,29.79,South,180,2.2,2.2,85,0.00,,OVC020,0.00,VWS V14.01,2013-05-31 09:08:00,
2013-05-31 04:12:00,63.8,59.5,29.79,SE,135,0.0,7.0,86,0.00,,OVC020,0.00,VWS V14.01,2013-05-31 09:12:00,
2013-05-31 04:13:00,63.8,59.5,29.79,SSE,158,0.0,0.0,86,0.00,,OVC020,0.00,VWS V14.01,2013-05-31 09:13:00,
2013-05-31 04:14:00,63.8,59.5,29.79,SSE,158,0.0,0.0,86,0.00,,OVC020,0.00,VWS V14.01,2013-05-31 09:14:00,
2013-05-31 04:18:00,63.8,59.5,29.79,SSW,202,0.0,8.0,86,0.00,,OVC020,0.00,VWS V14.01,2013-05-31 09:18:00,
2013-05-31 04:19:00,63.8,59.5,29.79,South,180,0.0,0.0,86,0.00,,OVC020,0.00,VWS V14.01,2013-05-31 09:19:00,
2013-05-31 04:20:00,63.8,59.5,29.79,South,180,7.0,7.0,86,0.00,,OVC020,0.00,VWS V14.01,2013-05-31 09:20:00,
2013-05-31 04:23:00,63.8,59.5,29.79,South,180,0.0,0.0,86,0.00,,OVC020,0.00,VWS V14.01,2013-05-31 09:23:00,
2013-05-31 04:24:00,63.8,59.5,29.79,SSW,202,0.0,0.0,86,0.00,,OVC020,0.00,VWS V14.01,2013-05-31 09:24:00,
2013-05-31 04:25:00,63.8,59.5,29.79,South,180,0.0,0.0,86,0.00,,OVC020,0.00,VWS V14.01,2013-05-31 09:25:00,
2013-05-31 04:26:00,63.8,59.5,29.79,South,180,4.8,4.8,86,0.00,,OVC020,0.00,VWS V14.01,2013-05-31 09:26:00,
2013-05-31 04:27:00,63.8,59.5,29.78,SSE,158,5.2,5.2,86,0.00,,OVC020,0.00,VWS V14.01,2013-05-31 09:27:00,
2013-05-31 04:28:00,63.8,59.5,29.78,SSW,202,12.0,12.0,86,0.00,,OVC020,0.00,VWS V14.01,2013-05-31 09:28:00,
2013-05-31 04:32:00,63.6,59.3,29.79,SSW,202,0.0,0.0,86,0.00,,OVC020,0.00,VWS V14.01,2013-05-31 09:32:00,
2013-05-31 04:34:00,63.8,59.5,29.79,SSE,158,4.4,4.4,86,0.00,,OVC020,0.00,VWS V14.01,2013-05-31 09:34:00,
2013-05-31 04:36:00,63.8,59.5,29.79,SSE,158,3.4,12.0,86,0.00,,OVC020,0.00,VWS V14.01,2013-05-31 09:36:00,
2013-05-31 04:38:00,63.6,59.3,29.78,SSW,202,0.0,7.6,86,0.00,,OVC020,0.00,VWS V14.01,2013-05-31 09:38:00,
2013-05-31 04:39:00,63.8,59.5,29.78,SE,135,0.0,0.0,86,0.00,,OVC020,0.00,VWS V14.01,2013-05-31 09:39:00,
2013-05-31 04:40:00,63.8,59.5,29.78,SE,135,4.0,4.0,86,0.00,,OVC020,0.00,VWS V14.01,2013-05-31 09:40:00,
2013-05-31 04:42:00,63.8,59.5,29.78,SSW,202,4.8,4.8,86,0.00,,OVC020,0.00,VWS V14.01,2013-05-31 09:42:00,
2013-05-31 04:43:00,63.8,59.9,29.78,SE,135,0.0,4.8,87,0.00,,OVC020,0.00,VWS V14.01,2013-05-31 09:43:00,
2013-05-31 04:44:00,63.6,59.3,29.78,SSW,202,6.6,6.6,86,0.00,,OVC020,0.00,VWS V14.01,2013-05-31 09:44:00,
2013-05-31 04:46:00,63.6,59.3,29.78,SSE,158,1.6,1.6,86,0.00,,OVC020,0.00,VWS V14.01,2013-05-31 09:46:00,
2013-05-31 04:47:00,63.6,59.3,29.78,SSW,202,3.4,3.4,86,0.00,,OVC020,0.00,VWS V14.01,2013-05-31 09:47:00,
2013-05-31 04:49:00,63.8,59.9,29.78,SSE,158,3.4,9.2,87,0.00,,OVC020,0.00,VWS V14.01,2013-05-31 09:49:00,
2013-05-31 04:51:00,63.6,59.7,29.78,SSW,202,0.0,0.0,87,0.00,,SCT016,0.00,VWS V14.01,2013-05-31 09:51:00,
2013-05-31 04:52:00,63.8,59.9,29.79,SSW,202,0.0,0.0,87,0.00,,SCT016,0.00,VWS V14.01,2013-05-31 09:52:00,
2013-05-31 04:53:00,63.8,59.9,29.79,South,180,0.0,0.0,87,0.00,,SCT016,0.00,VWS V14.01,2013-05-31 09:53:00,
2013-05-31 04:54:00,63.8,59.9,29.79,SSW,202,0.0,0.0,87,0.00,,SCT016,0.00,VWS V14.01,2013-05-31 09:54:00,
2013-05-31 04:56:00,63.8,59.9,29.79,SSE,158,0.0,0.0,87,0.00,,SCT016,0.00,VWS V14.01,2013-05-31 09:56:00,
2013-05-31 04:57:00,63.8,59.9,29.79,SE,135,0.0,0.0,87,0.00,,SCT016,0.00,VWS V14.01,2013-05-31 09:57:00,
2013-05-31 05:01:00,63.8,59.9,29.79,South,180,6.2,9.8,87,0.00,,SCT016,0.00,VWS V14.01,2013-05-31 10:01:00,
2013-05-31 05:02:00,63.8,59.9,29.79,South,180,0.0,9.8,87,0.00,,SCT016,0.00,VWS V14.01,2013-05-31 10:02:00,
2013-05-31 05:03:00,63.6,59.7,29.79,SSW,202,0.0,0.0,87,0.00,,SCT016,0.00,VWS V14.01,2013-05-31 10:03:00,
2013-05-31 05:07:00,63.6,59.7,29.80,SSW,202,2.6,2.6,87,0.00,,SCT016,0.00,VWS V14.01,2013-05-31 10:07:00,
2013-05-31 05:08:00,63.5,59.6,29.80,East,90,9.8,9.8,87,0.00,,SCT016,0.00,VWS V14.01,2013-05-31 10:08:00,
2013-05-31 05:10:00,63.6,59.7,29.79,South,180,0.0,9.8,87,0.00,,SCT016,0.00,VWS V14.01,2013-05-31 10:10:00,
2013-05-31 05:13:00,63.5,59.6,29.79,SSW,202,0.0,9.8,87,0.00,,SCT016,0.00,VWS V14.01,2013-05-31 10:13:00,
2013-05-31 05:14:00,63.6,59.7,29.79,South,180,0.0,9.8,87,0.00,,SCT016,0.00,VWS V14.01,2013-05-31 10:14:00,
2013-05-31 05:18:00,63.6,59.7,29.79,SSE,158,0.0,1.6,87,0.00,,SCT016,0.00,VWS V14.01,2013-05-31 10:18:00,
2013-05-31 05:19:00,63.5,59.6,29.79,SE,135,0.0,0.0,87,0.00,,SCT016,0.00,VWS V14.01,2013-05-31 10:19:00,
2013-05-31 05:20:00,63.5,59.6,29.79,SSE,158,0.0,0.0,87,0.00,,SCT016,0.00,VWS V14.01,2013-05-31 10:20:00,
2013-05-31 05:21:00,63.5,59.6,29.79,South,180,2.6,2.6,87,0.00,,SCT016,0.00,VWS V14.01,2013-05-31 10:21:00,
2013-05-31 05:24:00,63.5,59.6,29.79,SSE,158,0.0,4.0,87,0.00,,SCT016,0.00,VWS V14.01,2013-05-31 10:24:00,
2013-05-31 05:25:00,63.5,59.6,29.78,SSE,158,0.0,0.0,87,0.00,,SCT016,0.00,VWS V14.01,2013-05-31 10:25:00,
2013-05-31 05:26:00,63.5,59.6,29.78,SSE,158,0.0,0.0,87,0.00,,SCT016,0.00,VWS V14.01,2013-05-31 10:26:00,
2013-05-31 05:27:00,63.5,59.6,29.78,SSE,158,11.6,11.6,87,0.00,,SCT016,0.00,VWS V14.01,2013-05-31 10:27:00,
2013-05-31 05:28:00,63.5,59.6,29.78,SSW,202,0.0,0.0,87,0.00,,SCT016,0.00,VWS V14.01,2013-05-31 10:28:00,
2013-05-31 05:31:00,63.5,59.6,29.78,SSE,158,0.0,2.6,87,0.00,,SCT016,0.00,VWS V14.01,2013-05-31 10:31:00,
2013-05-31 05:33:00,63.5,59.6,29.78,South,180,0.0,0.0,87,0.00,,SCT016,0.00,VWS V14.01,2013-05-31 10:33:00,
2013-05-31 05:34:00,63.3,59.4,29.78,SSW,202,0.0,0.0,87,0.00,,SCT016,0.00,VWS V14.01,2013-05-31 10:34:00,
2013-05-31 05:36:00,63.5,59.6,29.78,SSE,158,0.0,0.0,87,0.00,,SCT016,0.00,VWS V14.01,2013-05-31 10:36:00,
2013-05-31 05:39:00,63.5,59.6,29.77,SE,135,0.0,0.0,87,0.00,,SCT016,0.00,VWS V14.01,2013-05-31 10:39:00,
2013-05-31 05:40:00,63.5,59.6,29.77,SSW,202,0.0,0.0,87,0.00,,SCT016,0.00,VWS V14.01,2013-05-31 10:40:00,
2013-05-31 05:41:00,63.3,59.4,29.77,South,180,0.0,0.0,87,0.00,,SCT016,0.00,VWS V14.01,2013-05-31 10:41:00,
2013-05-31 05:42:00,63.5,59.6,29.77,SSE,158,0.0,0.0,87,0.00,,SCT016,0.00,VWS V14.01,2013-05-31 10:42:00,
2013-05-31 05:44:00,63.3,59.4,29.77,SSE,158,0.0,0.0,87,0.00,,SCT016,0.00,VWS V14.01,2013-05-31 10:44:00,
2013-05-31 05:46:00,63.3,59.7,29.77,SE,135,0.0,0.0,88,0.00,,SCT016,0.00,VWS V14.01,2013-05-31 10:46:00,
2013-05-31 05:48:00,63.3,59.7,29.77,South,180,0.0,0.0,88,0.00,,SCT016,0.00,VWS V14.01,2013-05-31 10:48:00,
2013-05-31 05:49:00,63.3,59.7,29.77,South,180,0.0,0.0,88,0.00,,SCT016,0.00,VWS V14.01,2013-05-31 10:49:00,
2013-05-31 05:53:00,63.3,59.7,29.77,South,180,0.0,0.0,88,0.00,,SCT014,0.00,VWS V14.01,2013-05-31 10:53:00,
2013-05-31 05:54:00,63.3,59.7,29.77,South,180,0.0,0.0,88,0.00,,SCT014,0.00,VWS V14.01,2013-05-31 10:54:00,
2013-05-31 05:55:00,63.3,59.7,29.77,SE,135,0.0,0.0,88,0.00,,SCT014,0.00,VWS V14.01,2013-05-31 10:55:00,
2013-05-31 05:58:00,63.3,59.7,29.78,SSE,158,0.0,0.0,88,0.00,,SCT014,0.00,VWS V14.01,2013-05-31 10:58:00,
2013-05-31 06:01:00,63.3,59.7,29.78,ESE,112,0.0,0.0,88,0.00,,SCT014,0.00,VWS V14.01,2013-05-31 11:01:00,
2013-05-31 06:02:00,63.1,59.5,29.78,SSE,158,0.0,4.0,88,0.00,,SCT014,0.00,VWS V14.01,2013-05-31 11:02:00,
2013-05-31 06:04:00,63.3,59.7,29.78,SSE,158,4.8,4.8,88,0.00,,SCT014,0.00,VWS V14.01,2013-05-31 11:04:00,
2013-05-31 06:07:00,63.1,59.5,29.78,SSE,158,0.0,0.0,88,0.00,,SCT014,0.00,VWS V14.01,2013-05-31 11:07:00,
2013-05-31 06:08:00,63.1,59.5,29.77,South,180,0.0,0.0,88,0.00,,SCT014,0.00,VWS V14.01,2013-05-31 11:08:00,
2013-05-31 06:09:00,63.1,59.5,29.77,South,180,7.6,7.6,88,0.00,,SCT014,0.00,VWS V14.01,2013-05-31 11:09:00,
2013-05-31 06:10:00,62.9,59.3,29.78,South,180,0.0,7.6,88,0.00,,SCT014,0.00,VWS V14.01,2013-05-31 11:10:00,
2013-05-31 06:12:00,63.1,59.5,29.78,SSE,158,0.0,0.0,88,0.00,,SCT014,0.00,VWS V14.01,2013-05-31 11:12:00,
2013-05-31 06:13:00,63.1,59.5,29.78,SSE,158,0.0,0.0,88,0.00,,SCT014,0.00,VWS V14.01,2013-05-31 11:13:00,
2013-05-31 06:14:00,63.1,59.5,29.77,South,180,0.0,0.0,88,0.00,,SCT014,0.00,VWS V14.01,2013-05-31 11:14:00,
2013-05-31 06:17:00,62.9,59.3,29.77,South,180,0.0,0.0,88,0.00,,SCT014,0.00,VWS V14.01,2013-05-31 11:17:00,
2013-05-31 06:18:00,63.1,59.5,29.77,SE,135,0.0,0.0,88,0.00,,SCT014,0.00,VWS V14.01,2013-05-31 11:18:00,
2013-05-31 06:20:00,62.9,59.3,29.77,South,180,0.0,0.0,88,0.00,,SCT014,0.00,VWS V14.01,2013-05-31 11:20:00,
2013-05-31 06:22:00,62.9,59.3,29.77,South,180,0.0,0.0,88,0.00,,SCT014,0.00,VWS V14.01,2013-05-31 11:22:00,
2013-05-31 06:24:00,62.9,59.3,29.77,South,180,0.0,0.0,88,0.00,,SCT014,0.00,VWS V14.01,2013-05-31 11:24:00,
2013-05-31 06:25:00,62.9,59.6,29.77,SSE,158,0.0,0.0,89,0.00,,SCT014,0.00,VWS V14.01,2013-05-31 11:25:00,
2013-05-31 06:26:00,62.9,59.6,29.76,South,180,0.0,0.0,89,0.00,,SCT014,0.00,VWS V14.01,2013-05-31 11:26:00,
2013-05-31 06:30:00,62.9,59.6,29.76,SSE,158,0.0,0.0,89,0.00,,SCT014,0.00,VWS V14.01,2013-05-31 11:30:00,
2013-05-31 06:34:00,62.9,59.6,29.77,South,180,0.0,0.0,89,0.00,,SCT014,0.00,VWS V14.01,2013-05-31 11:34:00,
2013-05-31 06:35:00,62.9,59.6,29.77,South,180,0.0,0.0,89,0.00,,SCT014,0.00,VWS V14.01,2013-05-31 11:35:00,
2013-05-31 06:36:00,63.1,59.8,29.77,SSE,158,0.0,0.0,89,0.00,,SCT014,0.00,VWS V14.01,2013-05-31 11:36:00,
2013-05-31 06:37:00,63.1,59.8,29.77,SSE,158,0.0,0.0,89,0.00,,SCT014,0.00,VWS V14.01,2013-05-31 11:37:00,
2013-05-31 06:38:00,62.9,59.6,29.77,South,180,0.0,0.0,89,0.00,,SCT014,0.00,VWS V14.01,2013-05-31 11:38:00,
2013-05-31 06:40:00,62.9,59.6,29.77,South,180,0.0,0.0,89,0.00,,SCT014,0.00,VWS V14.01,2013-05-31 11:40:00,
2013-05-31 06:41:00,62.9,59.6,29.77,South,180,0.0,0.0,89,0.00,,SCT014,0.00,VWS V14.01,2013-05-31 11:41:00,
2013-05-31 06:42:00,62.9,59.6,29.78,SSE,158,0.0,0.0,89,0.00,,SCT014,0.00,VWS V14.01,2013-05-31 11:42:00,
2013-05-31 06:44:00,62.9,59.6,29.78,South,180,0.0,0.0,89,0.00,,SCT014,0.00,VWS V14.01,2013-05-31 11:44:00,
2013-05-31 06:45:00,62.9,59.6,29.77,South,180,0.0,0.0,89,0.00,,SCT014,0.00,VWS V14.01,2013-05-31 11:45:00,
2013-05-31 06:47:00,62.9,59.6,29.77,SSE,158,0.0,0.0,89,0.00,,SCT014,0.00,VWS V14.01,2013-05-31 11:47:00,
2013-05-31 06:48:00,63.1,59.8,29.77,South,180,0.0,0.0,89,0.00,,SCT014,0.00,VWS V14.01,2013-05-31 11:48:00,
2013-05-31 06:49:00,62.9,59.6,29.77,SSE,158,0.0,0.0,89,0.00,,SCT014,0.00,VWS V14.01,2013-05-31 11:49:00,
2013-05-31 06:50:00,62.9,59.6,29.77,South,180,0.0,0.0,89,0.00,,CLR,0.00,VWS V14.01,2013-05-31 11:50:00,
2013-05-31 06:52:00,62.9,59.6,29.77,South,180,0.0,0.0,89,0.00,,CLR,0.00,VWS V14.01,2013-05-31 11:52:00,
2013-05-31 06:54:00,63.1,59.8,29.77,SSW,202,0.0,0.0,89,0.00,,CLR,0.00,VWS V14.01,2013-05-31 11:54:00,
2013-05-31 06:55:00,63.1,59.8,29.77,South,180,5.2,5.2,89,0.00,,CLR,0.00,VWS V14.01,2013-05-31 11:55:00,
2013-05-31 06:56:00,63.1,59.8,29.77,South,180,0.0,5.2,89,0.00,,CLR,0.00,VWS V14.01,2013-05-31 11:56:00,
2013-05-31 07:00:00,63.3,60.0,29.77,SSE,158,0.0,0.0,89,0.00,,CLR,0.00,VWS V14.01,2013-05-31 12:00:00,
2013-05-31 07:01:00,63.1,59.8,29.77,SSE,158,0.0,0.0,89,0.00,,CLR,0.00,VWS V14.01,2013-05-31 12:01:00,
2013-05-31 07:03:00,63.3,60.0,29.77,SSE,158,0.0,0.0,89,0.00,,CLR,0.00,VWS V14.01,2013-05-31 12:03:00,
2013-05-31 07:04:00,63.3,60.3,29.77,SE,135,0.0,0.0,90,0.00,,CLR,0.00,VWS V14.01,2013-05-31 12:04:00,
2013-05-31 07:06:00,63.5,60.2,29.77,South,180,0.0,0.0,89,0.00,,CLR,0.00,VWS V14.01,2013-05-31 12:06:00,
2013-05-31 07:07:00,63.5,60.2,29.77,SSE,158,0.0,0.0,89,0.00,,CLR,0.00,VWS V14.01,2013-05-31 12:07:00,
2013-05-31 07:08:00,63.5,60.5,29.78,SSE,158,8.8,8.8,90,0.00,,CLR,0.00,VWS V14.01,2013-05-31 12:08:00,
2013-05-31 07:10:00,63.5,60.2,29.78,SSE,158,0.0,4.0,89,0.00,,CLR,0.00,VWS V14.01,2013-05-31 12:10:00,
2013-05-31 07:12:00,63.5,60.2,29.78,SW,225,6.2,8.4,89,0.00,,CLR,0.00,VWS V14.01,2013-05-31 12:12:00,
2013-05-31 07:14:00,63.6,60.3,29.78,SSW,202,0.0,6.2,89,0.00,,CLR,0.00,VWS V14.01,2013-05-31 12:14:00,
2013-05-31 07:15:00,63.6,60.3,29.78,SSW,202,0.0,0.0,89,0.00,,CLR,0.00,VWS V14.01,2013-05-31 12:15:00,
2013-05-31 07:16:00,63.5,60.2,29.78,SSE,158,0.0,0.0,89,0.00,,CLR,0.00,VWS V14.01,2013-05-31 12:16:00,
2013-05-31 07:18:00,63.8,60.5,29.77,South,180,0.0,0.0,89,0.00,,CLR,0.00,VWS V14.01,2013-05-31 12:18:00,
2013-05-31 07:20:00,63.6,60.3,29.77,SE,135,0.0,0.0,89,0.00,,CLR,0.00,VWS V14.01,2013-05-31 12:20:00,
2013-05-31 07:21:00,63.8,60.5,29.77,South,180,0.0,0.0,89,0.00,,CLR,0.00,VWS V14.01,2013-05-31 12:21:00,
2013-05-31 07:22:00,63.8,60.5,29.77,SSE,158,0.0,0.0,89,0.00,,CLR,0.00,VWS V14.01,2013-05-31 12:22:00,
2013-05-31 07:23:00,63.8,60.5,29.77,SE,135,0.0,0.0,89,0.00,,CLR,0.00,VWS V14.01,2013-05-31 12:23:00,
2013-05-31 07:25:00,63.8,60.5,29.78,SSW,202,0.0,0.0,89,0.00,,CLR,0.00,VWS V14.01,2013-05-31 12:25:00,
2013-05-31 07:26:00,63.6,60.3,29.77,South,180,0.0,0.0,89,0.00,,CLR,0.00,VWS V14.01,2013-05-31 12:26:00,
2013-05-31 07:27:00,63.8,60.5,29.77,SSE,158,0.0,0.0,89,0.00,,CLR,0.00,VWS V14.01,2013-05-31 12:27:00,
2013-05-31 07:30:00,63.8,60.5,29.78,South,180,0.0,0.0,89,0.00,,CLR,0.00,VWS V14.01,2013-05-31 12:30:00,
2013-05-31 07:32:00,63.8,60.5,29.79,SSE,158,0.0,0.0,89,0.00,,CLR,0.00,VWS V14.01,2013-05-31 12:32:00,
2013-05-31 07:34:00,64.0,60.7,29.79,SSE,158,0.0,0.0,89,0.00,,CLR,0.00,VWS V14.01,2013-05-31 12:34:00,
2013-05-31 07:36:00,64.2,60.9,29.79,South,180,4.8,4.8,89,0.00,,CLR,0.00,VWS V14.01,2013-05-31 12:36:00,
2013-05-31 07:37:00,64.2,60.9,29.79,South,180,4.8,4.8,89,0.00,,CLR,0.00,VWS V14.01,2013-05-31 12:37:00,
2013-05-31 07:38:00,64.2,60.9,29.79,SSE,158,0.0,4.8,89,0.00,,CLR,0.00,VWS V14.01,2013-05-31 12:38:00,
2013-05-31 07:41:00,64.4,61.1,29.79,SE,135,0.0,0.0,89,0.00,,CLR,0.00,VWS V14.01,2013-05-31 12:41:00,
2013-05-31 07:42:00,64.5,61.2,29.79,South,180,0.0,0.0,89,0.00,,CLR,0.00,VWS V14.01,2013-05-31 12:42:00,
2013-05-31 07:43:00,64.5,61.2,29.79,West,270,0.0,0.0,89,0.00,,CLR,0.00,VWS V14.01,2013-05-31 12:43:00,
2013-05-31 07:46:00,64.5,61.2,29.79,SSE,158,0.0,9.2,89,0.00,,CLR,0.00,VWS V14.01,2013-05-31 12:46:00,
2013-05-31 07:47:00,64.5,61.2,29.79,SSE,158,0.0,0.0,89,0.00,,CLR,0.00,VWS V14.01,2013-05-31 12:47:00,
2013-05-31 07:48:00,64.7,61.4,29.79,ESE,112,0.0,0.0,89,0.00,,CLR,0.00,VWS V14.01,2013-05-31 12:48:00,
2013-05-31 07:50:00,64.7,61.4,29.79,SSE,158,0.0,0.0,89,0.00,,CLR,0.00,VWS V14.01,2013-05-31 12:50:00,
2013-05-31 07:51:00,64.7,61.4,29.79,South,180,0.0,0.0,89,0.00,,CLR,0.00,VWS V14.01,2013-05-31 12:51:00,
2013-05-31 07:52:00,64.7,61.4,29.79,SSW,202,0.0,0.0,89,0.00,,CLR,0.00,VWS V14.01,2013-05-31 12:52:00,
2013-05-31 07:55:00,64.9,61.6,29.79,SSW,202,0.0,0.0,89,0.00,,CLR,0.00,VWS V14.01,2013-05-31 12:55:00,
2013-05-31 07:56:00,65.1,61.8,29.79,South,180,0.0,0.0,89,0.00,,CLR,0.00,VWS V14.01,2013-05-31 12:56:00,
2013-05-31 07:57:00,65.1,61.8,29.79,South,180,6.2,6.2,89,0.00,,CLR,0.00,VWS V14.01,2013-05-31 12:57:00,
2013-05-31 07:59:00,65.1,61.5,29.79,East,90,4.0,4.0,88,0.00,,CLR,0.00,VWS V14.01,2013-05-31 12:59:00,
2013-05-31 08:02:00,65.3,61.7,29.79,SSE,158,5.8,5.8,88,0.00,,CLR,0.00,VWS V14.01,2013-05-31 13:02:00,
2013-05-31 08:03:00,65.3,61.7,29.79,South,180,0.0,0.0,88,0.00,,CLR,0.00,VWS V14.01,2013-05-31 13:03:00,
2013-05-31 08:04:00,65.4,61.8,29.79,SSW,202,0.0,8.4,88,0.00,,CLR,0.00,VWS V14.01,2013-05-31 13:04:00,
2013-05-31 08:06:00,65.6,61.6,29.79,South,180,11.6,21.0,87,0.00,,CLR,0.00,VWS V14.01,2013-05-31 13:06:00,
2013-05-31 08:08:00,65.6,61.6,29.79,SW,225,0.0,11.6,87,0.00,,CLR,0.00,VWS V14.01,2013-05-31 13:08:00,
2013-05-31 08:10:00,65.6,61.6,29.79,SW,225,0.0,8.4,87,0.00,,BKN009,0.00,VWS V14.01,2013-05-31 13:10:00,
2013-05-31 08:11:00,65.8,61.8,29.79,SSE,158,0.0,0.0,87,0.00,,BKN009,0.00,VWS V14.01,2013-05-31 13:11:00,
2013-05-31 08:13:00,66.0,62.0,29.79,SE,135,0.0,2.6,87,0.00,,BKN009,0.00,VWS V14.01,2013-05-31 13:13:00,
2013-05-31 08:14:00,66.0,62.0,29.79,SSW,202,6.2,6.2,87,0.00,,BKN009,0.00,VWS V14.01,2013-05-31 13:14:00,
2013-05-31 08:15:00,66.2,62.2,29.79,SE,135,8.4,8.4,87,0.00,,BKN009,0.00,VWS V14.01,2013-05-31 13:15:00,
2013-05-31 08:16:00,66.2,62.2,29.79,SSE,158,3.4,3.4,87,0.00,,BKN009,0.00,VWS V14.01,2013-05-31 13:16:00,
2013-05-31 08:19:00,66.3,62.0,29.79,SSE,158,5.2,13.8,86,0.00,,BKN009,0.00,VWS V14.01,2013-05-31 13:19:00,
2013-05-31 08:20:00,66.3,62.0,29.79,South,180,10.2,10.2,86,0.00,,BKN009,0.00,VWS V14.01,2013-05-31 13:20:00,
2013-05-31 08:21:00,66.3,62.0,29.79,SSW,202,0.0,10.2,86,0.00,,BKN009,0.00,VWS V14.01,2013-05-31 13:21:00,
2013-05-31 08:23:00,66.5,62.2,29.79,SW,225,2.2,2.2,86,0.00,,BKN009,0.00,VWS V14.01,2013-05-31 13:23:00,
2013-05-31 08:24:00,66.5,62.2,29.79,SE,135,5.8,5.8,86,0.00,,BKN009,0.00,VWS V14.01,2013-05-31 13:24:00,
2013-05-31 08:25:00,66.7,62.4,29.79,SSE,158,0.0,5.8,86,0.00,,BKN009,0.00,VWS V14.01,2013-05-31 13:25:00,
2013-05-31 08:29:00,66.9,62.2,29.80,SE,135,4.4,4.4,85,0.00,,BKN009,0.00,VWS V14.01,2013-05-31 13:29:00,
2013-05-31 08:30:00,67.1,62.5,29.79,South,180,13.8,13.8,85,0.00,,BKN009,0.00,VWS V14.01,2013-05-31 13:30:00,
2013-05-31 08:31:00,67.1,62.1,29.79,South,180,0.0,13.8,84,0.00,,BKN009,0.00,VWS V14.01,2013-05-31 13:31:00,
2013-05-31 08:34:00,67.1,62.1,29.80,SSW,202,0.0,7.0,84,0.00,,BKN009,0.00,VWS V14.01,2013-05-31 13:34:00,
2013-05-31 08:35:00,67.2,62.2,29.80,SSW,202,0.0,0.0,84,0.00,,BKN009,0.00,VWS V14.01,2013-05-31 13:35:00,
2013-05-31 08:36:00,67.2,62.2,29.80,SSW,202,12.0,12.0,84,0.00,,BKN009,0.00,VWS V14.01,2013-05-31 13:36:00,
2013-05-31 08:39:00,67.4,62.1,29.80,SSE,158,5.8,10.6,83,0.00,,BKN009,0.00,VWS V14.01,2013-05-31 13:39:00,
2013-05-31 08:40:00,67.4,62.1,29.80,SSE,158,0.0,10.6,83,0.00,,BKN009,0.00,VWS V14.01,2013-05-31 13:40:00,
2013-05-31 08:42:00,67.6,62.3,29.80,North,0,0.0,6.2,83,0.00,,BKN009,0.00,VWS V14.01,2013-05-31 13:42:00,
2013-05-31 08:43:00,67.6,62.3,29.80,SSE,158,1.2,1.2,83,0.00,,BKN009,0.00,VWS V14.01,2013-05-31 13:43:00,
2013-05-31 08:47:00,67.8,62.1,29.80,South,180,7.6,7.6,82,0.00,,BKN009,0.00,VWS V14.01,2013-05-31 13:47:00,
2013-05-31 08:48:00,67.8,62.1,29.79,SW,225,4.0,7.6,82,0.00,,BKN009,0.00,VWS V14.01,2013-05-31 13:48:00,
2013-05-31 08:49:00,68.0,62.3,29.80,SSE,158,0.0,4.0,82,0.00,,BKN009,0.00,VWS V14.01,2013-05-31 13:49:00,
2013-05-31 08:50:00,68.0,62.3,29.80,South,180,9.2,9.2,82,0.00,,BKN009,0.00,VWS V14.01,2013-05-31 13:50:00,
2013-05-31 08:53:00,68.0,62.0,29.80,SSE,158,11.6,11.6,81,0.00,,BKN009,0.00,VWS V14.01,2013-05-31 13:53:00,
2013-05-31 08:55:00,68.1,62.1,29.80,SSE,158,0.0,0.0,81,0.00,,BKN009,0.00,VWS V14.01,2013-05-31 13:55:00,
2013-05-31 08:56:00,68.0,62.0,29.80,SSE,158,4.4,4.4,81,0.00,,BKN009,0.00,VWS V14.01,2013-05-31 13:56:00,
2013-05-31 08:57:00,68.0,62.0,29.80,SSE,158,0.0,4.4,81,0.00,,BKN009,0.00,VWS V14.01,2013-05-31 13:57:00,
2013-05-31 08:58:00,68.0,62.0,29.80,SSW,202,8.4,8.4,81,0.00,,BKN009,0.00,VWS V14.01,2013-05-31 13:58:00,
2013-05-31 08:59:00,68.1,62.1,29.80,SSW,202,9.8,9.8,81,0.00,,BKN009,0.00,VWS V14.01,2013-05-31 13:59:00,
2013-05-31 09:01:00,68.1,62.1,29.80,South,180,8.4,8.4,81,0.00,,BKN009,0.00,VWS V14.01,2013-05-31 14:01:00,
2013-05-31 09:04:00,68.0,62.0,29.80,South,180,8.0,8.0,81,0.00,,BKN009,0.00,VWS V14.01,2013-05-31 14:04:00,
2013-05-31 09:05:00,67.8,61.8,29.80,SSE,158,0.0,8.0,81,0.00,,BKN009,0.00,VWS V14.01,2013-05-31 14:05:00,
2013-05-31 09:07:00,68.0,61.6,29.80,SSW,202,0.0,4.4,80,0.00,,BKN009,0.00,VWS V14.01,2013-05-31 14:07:00,
2013-05-31 09:08:00,68.0,62.0,29.80,SSE,158,5.8,5.8,81,0.00,,BKN009,0.00,VWS V14.01,2013-05-31 14:08:00,
2013-05-31 09:10:00,68.0,62.0,29.79,SW,225,8.0,8.0,81,0.00,,BKN009,0.00,VWS V14.01,2013-05-31 14:10:00,
2013-05-31 09:12:00,67.6,61.2,29.79,SSE,158,0.0,12.8,80,0.00,,BKN009,0.00,VWS V14.01,2013-05-31 14:12:00,
2013-05-31 09:15:00,68.0,61.6,29.80,South,180,6.6,6.6,80,0.00,,BKN009,0.00,VWS V14.01,2013-05-31 14:15:00,
2013-05-31 09:16:00,68.0,61.6,29.80,SSW,202,4.0,6.6,80,0.00,,BKN009,0.00,VWS V14.01,2013-05-31 14:16:00,
2013-05-31 09:17:00,67.8,61.4,29.80,South,180,5.8,5.8,80,0.00,,BKN009,0.00,VWS V14.01,2013-05-31 14:17:00,
2013-05-31 09:18:00,68.0,62.0,29.80,SSE,158,9.8,9.8,81,0.00,,BKN009,0.00,VWS V14.01,2013-05-31 14:18:00,
2013-05-31 09:19:00,68.0,61.6,29.80,South,180,7.0,9.8,80,0.00,,BKN009,0.00,VWS V14.01,2013-05-31 14:19:00,
2013-05-31 09:20:00,68.0,62.0,29.80,South,180,0.0,0.0,81,0.00,,BKN009,0.00,VWS V14.01,2013-05-31 14:20:00,
2013-05-31 09:23:00,68.0,62.0,29.80,South,180,4.4,4.4,81,0.00,,BKN009,0.00,VWS V14.01,2013-05-31 14:23:00,
2013-05-31 09:24:00,67.8,61.8,29.80,SSE,158,0.0,0.0,81,0.00,,BKN009,0.00,VWS V14.01,2013-05-31 14:24:00,
2013-05-31 09:25:00,67.8,61.8,29.80,SSE,158,0.0,0.0,81,0.00,,BKN009,0.00,VWS V14.01,2013-05-31 14:25:00,
2013-05-31 09:27:00,67.8,61.8,29.80,South,180,0.0,7.0,81,0.00,,BKN009,0.00,VWS V14.01,2013-05-31 14:27:00,
2013-05-31 09:30:00,68.0,62.0,29.80,SSE,158,8.4,8.4,81,0.00,,BKN009,0.00,VWS V14.01,2013-05-31 14:30:00,
2013-05-31 09:31:00,67.8,61.4,29.80,South,180,15.2,15.2,80,0.00,,BKN009,0.00,VWS V14.01,2013-05-31 14:31:00,
2013-05-31 09:32:00,67.8,61.8,29.80,SW,225,5.2,5.2,81,0.00,,BKN009,0.00,VWS V14.01,2013-05-31 14:32:00,
2013-05-31 09:34:00,67.6,61.6,29.80,SSW,202,6.2,6.2,81,0.00,,BKN009,0.00,VWS V14.01,2013-05-31 14:34:00,
2013-05-31 09:35:00,67.6,61.6,29.80,SSE,158,0.0,6.2,81,0.00,,BKN009,0.00,VWS V14.01,2013-05-31 14:35:00,
2013-05-31 09:37:00,67.6,61.6,29.80,SSW,202,0.0,8.4,81,0.00,,BKN009,0.00,VWS V14.01,2013-05-31 14:37:00,
2013-05-31 09:39:00,67.6,61.6,29.80,SSE,158,0.0,1.6,81,0.00,,BKN009,0.00,VWS V14.01,2013-05-31 14:39:00,
2013-05-31 09:41:00,67.6,61.6,29.81,SSE,158,15.6,15.6,81,0.00,,SCT017,0.00,VWS V14.01,2013-05-31 14:41:00,
2013-05-31 09:42:00,67.6,61.6,29.81,SSW,202,9.2,9.2,81,0.00,,SCT017,0.00,VWS V14.01,2013-05-31 14:42:00,
2013-05-31 09:43:00,67.6,61.6,29.80,South,180,6.2,9.2,81,0.00,,SCT017,0.00,VWS V14.01,2013-05-31 14:43:00,
2013-05-31 09:44:00,67.6,61.6,29.80,SE,135,10.2,10.2,81,0.00,,SCT017,0.00,VWS V14.01,2013-05-31 14:44:00,
2013-05-31 09:47:00,67.6,61.6,29.80,West,270,17.8,17.8,81,0.00,,SCT017,0.00,VWS V14.01,2013-05-31 14:47:00,
2013-05-31 09:48:00,67.6,61.6,29.81,SSW,202,6.2,17.8,81,0.00,,SCT017,0.00,VWS V14.01,2013-05-31 14:48:00,
2013-05-31 09:49:00,67.6,61.6,29.80,SSE,158,4.0,6.2,81,0.00,,SCT017,0.00,VWS V14.01,2013-05-31 14:49:00,
2013-05-31 09:50:00,67.6,61.6,29.81,South,180,7.0,7.0,81,0.00,,SCT017,0.00,VWS V14.01,2013-05-31 14:50:00,
2013-05-31 09:53:00,67.6,61.6,29.80,SSW,202,0.0,0.0,81,0.00,,SCT017,0.00,VWS V14.01,2013-05-31 14:53:00,
2013-05-31 09:54:00,67.4,61.4,29.80,South,180,10.6,10.6,81,0.00,,SCT017,0.00,VWS V14.01,2013-05-31 14:54:00,
2013-05-31 09:56:00,67.6,61.6,29.80,SW,225,6.2,14.2,81,0.00,,SCT017,0.00,VWS V14.01,2013-05-31 14:56:00,
2013-05-31 09:57:00,67.4,61.4,29.80,SSE,158,9.8,9.8,81,0.00,,SCT017,0.00,VWS V14.01,2013-05-31 14:57:00,
2013-05-31 09:58:00,67.4,61.4,29.80,SSW,202,0.0,9.8,81,0.00,,SCT017,0.00,VWS V14.01,2013-05-31 14:58:00,
2013-05-31 10:00:00,67.4,61.4,29.79,South,180,0.0,6.6,81,0.00,,SCT017,0.00,VWS V14.01,2013-05-31 15:00:00,
2013-05-31 10:02:00,67.4,61.4,29.78,South,180,9.2,9.2,81,0.00,,SCT017,0.00,VWS V14.01,2013-05-31 15:02:00,
2013-05-31 10:04:00,67.2,61.2,29.78,SSW,202,13.4,13.4,81,0.00,,SCT017,0.00,VWS V14.01,2013-05-31 15:04:00,
2013-05-31 10:06:00,67.1,61.1,29.78,South,180,7.6,13.4,81,0.00,,SCT017,0.00,VWS V14.01,2013-05-31 15:06:00,
2013-05-31 10:08:00,67.2,61.2,29.77,SE,135,10.2,10.2,81,0.00,,SCT017,0.00,VWS V14.01,2013-05-31 15:08:00,
2013-05-31 10:09:00,67.1,61.1,29.76,SSW,202,12.8,12.8,81,0.00,,SCT017,0.00,VWS V14.01,2013-05-31 15:09:00,
2013-05-31 10:10:00,67.1,61.1,29.77,South,180,2.6,12.8,81,0.00,,SCT017,0.00,VWS V14.01,2013-05-31 15:10:00,
2013-05-31 10:12:00,66.9,61.2,29.77,SW,225,12.8,25.8,82,0.00,,SCT017,0.00,VWS V14.01,2013-05-31 15:12:00,
2013-05-31 10:14:00,66.9,61.2,29.76,SE,135,9.8,12.8,82,0.00,,SCT017,0.00,VWS V14.01,2013-05-31 15:14:00,
2013-05-31 10:15:00,66.7,60.7,29.74,SSE,158,13.8,13.8,81,0.00,,SCT017,0.00,VWS V14.01,2013-05-31 15:15:00,
2013-05-31 10:19:00,66.3,60.3,29.72,East,90,24.0,24.0,81,0.00,,SCT017,0.00,VWS V14.01,2013-05-31 15:19:00,
2013-05-31 10:20:00,66.3,60.3,29.72,ESE,112,25.4,25.4,81,0.00,,SCT017,0.00,VWS V14.01,2013-05-31 15:20:00,
2013-05-31 10:21:00,66.3,60.3,29.72,SSE,158,30.4,30.4,81,0.00,,SCT017,0.00,VWS V14.01,2013-05-31 15:21:00,
2013-05-31 10:22:00,66.3,60.0,29.71,South,180,17.0,30.4,80,0.00,,SCT017,0.00,VWS V14.01,2013-05-31 15:22:00,
2013-05-31 10:24:00,66.3,60.0,29.70,South,180,13.8,17.0,80,0.02,,SCT017,0.02,VWS V14.01,2013-05-31 15:24:00,
2013-05-31 10:26:00,66.0,59.7,29.70,SSE,158,12.0,12.0,80,0.02,,SCT017,0.02,VWS V14.01,2013-05-31 15:26:00,
2013-05-31 10:28:00,65.8,59.1,29.70,SSE,158,6.2,21.0,79,0.02,,SCT017,0.02,VWS V14.01,2013-05-31 15:28:00,
2013-05-31 10:30:00,65.8,58.8,29.71,SE,135,13.4,13.4,78,0.02,,SCT017,0.02,VWS V14.01,2013-05-31 15:30:00,
2013-05-31 10:31:00,65.8,58.8,29.71,SE,135,13.4,13.4,78,0.02,,SCT017,0.02,VWS V14.01,2013-05-31 15:31:00,
2013-05-31 10:32:00,65.8,58.8,29.70,SSW,202,11.0,13.4,78,0.02,,SCT017,0.02,VWS V14.01,2013-05-31 15:32:00,
2013-05-31 10:36:00,66.0,57.9,29.70,SSW,202,12.8,19.6,75,0.02,,SCT017,0.02,VWS V14.01,2013-05-31 15:36:00,
2013-05-31 10:37:00,66.0,57.9,29.70,SSW,202,12.8,12.8,75,0.02,,SCT017,0.02,VWS V14.01,2013-05-31 15:37:00,
2013-05-31 10:38:00,66.0,57.5,29.70,South,180,17.4,17.4,74,0.02,,SCT017,0.02,VWS V14.01,2013-05-31 15:38:00,
2013-05-31 10:40:00,66.2,57.3,29.70,SSE,158,4.4,17.4,73,0.02,,SCT017,0.02,VWS V14.01,2013-05-31 15:40:00,
2013-05-31 10:42:00,66.0,57.1,29.71,SW,225,2.6,4.4,73,0.02,,SCT017,0.02,VWS V14.01,2013-05-31 15:42:00,
2013-05-31 10:44:00,66.2,56.9,29.73,SSW,202,0.0,5.8,72,0.02,,SCT017,0.02,VWS V14.01,2013-05-31 15:44:00,
2013-05-31 10:46:00,66.0,56.7,29.72,WNW,292,7.6,11.0,72,0.02,,SCT017,0.02,VWS V14.01,2013-05-31 15:46:00,
2013-05-31 10:47:00,66.0,56.7,29.72,WNW,292,7.6,7.6,72,0.02,,SCT017,0.02,VWS V14.01,2013-05-31 15:47:00,
2013-05-31 10:52:00,66.0,56.0,29.73,SSE,158,4.0,4.0,70,0.02,,FEW015,0.02,VWS V14.01,2013-05-31 15:52:00,
2013-05-31 10:54:00,66.2,55.7,29.72,SSW,202,0.0,8.4,69,0.02,,FEW015,0.02,VWS V14.01,2013-05-31 15:54:00,
2013-05-31 10:57:00,66.3,55.0,29.72,SSW,202,0.0,0.0,67,0.02,,FEW015,0.02,VWS V14.01,2013-05-31 15:57:00,
2013-05-31 11:00:00,66.9,54.8,29.72,SSW,202,9.2,9.2,65,0.02,,FEW015,0.02,VWS V14.01,2013-05-31 16:00:00,
2013-05-31 11:01:00,66.9,54.8,29.72,SSW,202,9.2,9.2,65,0.02,,FEW015,0.02,VWS V14.01,2013-05-31 16:01:00,
2013-05-31 11:02:00,66.9,54.3,29.72,SE,135,2.6,9.2,64,0.02,,FEW015,0.02,VWS V14.01,2013-05-31 16:02:00,
2013-05-31 11:05:00,67.1,54.1,29.72,South,180,5.8,5.8,63,0.02,,FEW015,0.02,VWS V14.01,2013-05-31 16:05:00,
2013-05-31 11:06:00,67.1,53.2,29.72,SSW,202,3.4,5.8,61,0.02,,FEW015,0.02,VWS V14.01,2013-05-31 16:06:00,
2013-05-31 11:07:00,67.1,53.2,29.72,SSW,202,3.4,3.4,61,0.02,,FEW015,0.02,VWS V14.01,2013-05-31 16:07:00,
2013-05-31 11:08:00,67.4,53.5,29.73,South,180,8.4,8.4,61,0.02,,FEW015,0.02,VWS V14.01,2013-05-31 16:08:00,
2013-05-31 11:10:00,67.6,53.2,29.74,East,90,6.2,8.4,60,0.02,,FEW015,0.02,VWS V14.01,2013-05-31 16:10:00,
2013-05-31 11:12:00,67.6,53.2,29.73,ESE,112,3.4,6.2,60,0.02,,FEW015,0.02,VWS V14.01,2013-05-31 16:12:00,
2013-05-31 11:14:00,67.8,53.0,29.73,South,180,9.2,11.0,59,0.02,,FEW015,0.02,VWS V14.01,2013-05-31 16:14:00,
2013-05-31 11:15:00,67.8,53.0,29.73,South,180,9.2,9.2,59,0.02,,FEW015,0.02,VWS V14.01,2013-05-31 16:15:00,
2013-05-31 11:16:00,67.8,52.5,29.73,SSE,158,5.8,9.2,58,0.02,,FEW015,0.02,VWS V14.01,2013-05-31 16:16:00,
2013-05-31 11:20:00,68.1,52.3,29.75,South,180,0.0,4.0,57,0.02,,FEW015,0.02,VWS V14.01,2013-05-31 16:20:00,
2013-05-31 11:22:00,68.1,52.3,29.74,South,180,4.8,4.8,57,0.02,,FEW015,0.02,VWS V14.01,2013-05-31 16:22:00,
2013-05-31 11:24:00,68.1,52.8,29.74,SSW,202,6.6,6.6,58,0.02,,FEW015,0.02,VWS V14.01,2013-05-31 16:24:00,
2013-05-31 11:26:00,68.1,52.8,29.73,SSE,158,4.0,6.6,58,0.00,,FEW015,0.02,VWS V14.01,2013-05-31 16:26:00,
2013-05-31 11:27:00,68.1,52.8,29.73,SSE,158,6.6,6.6,58,0.00,,FEW015,0.02,VWS V14.01,2013-05-31 16:27:00,
2013-05-31 11:31:00,68.1,53.2,29.75,SW,225,0.0,0.0,59,0.00,,FEW015,0.02,VWS V14.01,2013-05-31 16:31:00,
2013-05-31 11:32:00,68.1,53.2,29.76,West,270,0.0,0.0,59,0.00,,FEW015,0.02,VWS V14.01,2013-05-31 16:32:00,
2013-05-31 11:33:00,68.1,53.2,29.76,West,270,0.0,0.0,59,0.00,,FEW015,0.02,VWS V14.01,2013-05-31 16:33:00,
2013-05-31 11:34:00,68.1,53.2,29.76,West,270,0.0,0.0,59,0.00,,FEW015,0.02,VWS V14.01,2013-05-31 16:34:00,
2013-05-31 11:37:00,68.3,53.9,29.76,South,180,2.6,2.6,60,0.00,,FEW015,0.02,VWS V14.01,2013-05-31 16:37:00,
2013-05-31 11:38:00,68.3,53.4,29.77,West,270,0.0,2.6,59,0.00,,FEW015,0.02,VWS V14.01,2013-05-31 16:38:00,
2013-05-31 11:40:00,68.5,53.6,29.78,West,270,0.0,0.0,59,0.00,,-RA,0.02,VWS V14.01,2013-05-31 16:40:00,
2013-05-31 11:42:00,68.5,53.6,29.78,SSE,158,0.0,0.0,59,0.00,,-RA,0.02,VWS V14.01,2013-05-31 16:42:00,
2013-05-31 11:44:00,68.7,53.8,29.78,South,180,0.0,0.0,59,0.00,,-RA,0.02,VWS V14.01,2013-05-31 16:44:00,
2013-05-31 11:46:00,68.7,53.8,29.78,SSW,202,0.0,0.0,59,0.00,,-RA,0.02,VWS V14.01,2013-05-31 16:46:00,
2013-05-31 11:48:00,68.9,53.5,29.77,South,180,0.0,0.0,58,0.00,,-RA,0.02,VWS V14.01,2013-05-31 16:48:00,
2013-05-31 11:49:00,68.9,53.5,29.78,South,180,0.0,0.0,58,0.00,,-RA,0.02,VWS V14.01,2013-05-31 16:49:00,
2013-05-31 11:52:00,69.0,53.2,29.77,SSW,202,0.0,0.0,57,0.00,,-RA,0.02,VWS V14.01,2013-05-31 16:52:00,
2013-05-31 11:53:00,69.0,53.2,29.77,SE,135,0.0,0.0,57,0.00,,-RA,0.02,VWS V14.01,2013-05-31 16:53:00,
2013-05-31 11:54:00,69.0,52.7,29.77,South,180,2.6,2.6,56,0.00,,-RA,0.02,VWS V14.01,2013-05-31 16:54:00,
2013-05-31 11:55:00,69.0,52.2,29.77,South,180,0.0,0.0,55,0.00,,-RA,0.02,VWS V14.01,2013-05-31 16:55:00,
2013-05-31 11:57:00,69.4,52.5,29.77,South,180,0.0,0.0,55,0.00,,-RA,0.02,VWS V14.01,2013-05-31 16:57:00,
2013-05-31 11:59:00,69.4,52.5,29.76,South,180,4.8,4.8,55,0.00,,-RA,0.02,VWS V14.01,2013-05-31 16:59:00,
2013-05-31 12:00:00,69.4,52.0,29.76,SE,135,5.2,5.2,54,0.00,,-RA,0.02,VWS V14.01,2013-05-31 17:00:00,
2013-05-31 12:01:00,69.4,52.0,29.76,South,180,4.8,4.8,54,0.00,,-RA,0.02,VWS V14.01,2013-05-31 17:01:00,
2013-05-31 12:02:00,69.8,52.4,29.76,SSE,158,5.2,5.2,54,0.00,,-RA,0.02,VWS V14.01,2013-05-31 17:02:00,
2013-05-31 12:03:00,69.9,52.5,29.77,SSW,202,0.0,0.0,54,0.00,,-RA,0.02,VWS V14.01,2013-05-31 17:03:00,
2013-05-31 12:05:00,69.9,52.5,29.77,WSW,248,0.0,0.0,54,0.00,,-RA,0.02,VWS V14.01,2013-05-31 17:05:00,
2013-05-31 12:06:00,70.1,52.7,29.77,SSE,158,0.0,12.0,54,0.00,,-RA,0.02,VWS V14.01,2013-05-31 17:06:00,
2013-05-31 12:07:00,70.1,52.2,29.77,SSW,202,0.0,0.0,53,0.00,,-RA,0.02,VWS V14.01,2013-05-31 17:07:00,
2013-05-31 12:10:00,70.3,52.4,29.77,South,180,0.0,14.2,53,0.00,,-RA,0.02,VWS V14.01,2013-05-31 17:10:00,
2013-05-31 12:11:00,70.3,51.9,29.76,SSW,202,4.4,4.4,52,0.00,,-RA,0.02,VWS V14.01,2013-05-31 17:11:00,
2013-05-31 12:12:00,70.5,52.0,29.77,SSW,202,4.4,4.4,52,0.00,,-RA,0.02,VWS V14.01,2013-05-31 17:12:00,
2013-05-31 12:13:00,70.5,52.0,29.77,WSW,248,0.0,4.4,52,0.00,,-RA,0.02,VWS V14.01,2013-05-31 17:13:00,
2013-05-31 12:17:00,70.5,51.5,29.77,South,180,0.0,2.6,51,0.00,,-RA,0.02,VWS V14.01,2013-05-31 17:17:00,
2013-05-31 12:18:00,70.7,51.2,29.77,SSW,202,0.0,2.6,50,0.00,,-RA,0.02,VWS V14.01,2013-05-31 17:18:00,
2013-05-31 12:19:00,70.7,51.2,29.77,South,180,0.0,0.0,50,0.00,,-RA,0.02,VWS V14.01,2013-05-31 17:19:00,
2013-05-31 12:20:00,70.7,51.2,29.76,South,180,0.0,0.0,50,0.00,,-RA,0.02,VWS V14.01,2013-05-31 17:20:00,
2013-05-31 12:22:00,70.7,51.2,29.76,South,180,6.2,6.2,50,0.00,,-RA,0.02,VWS V14.01,2013-05-31 17:22:00,
2013-05-31 12:24:00,70.8,50.7,29.76,South,180,13.4,13.4,49,0.00,,-RA,0.02,VWS V14.01,2013-05-31 17:24:00,
2013-05-31 12:25:00,71.0,50.9,29.77,SSE,158,0.0,13.4,49,0.00,,-RA,0.02,VWS V14.01,2013-05-31 17:25:00,
2013-05-31 12:26:00,71.0,50.9,29.77,ESE,112,14.6,14.6,49,0.00,,-RA,0.02,VWS V14.01,2013-05-31 17:26:00,
2013-05-31 12:27:00,71.0,50.9,29.77,SSW,202,4.4,14.6,49,0.00,,-RA,0.02,VWS V14.01,2013-05-31 17:27:00,
2013-05-31 12:29:00,71.0,50.3,29.77,SSW,202,12.0,12.0,48,0.00,,-RA,0.02,VWS V14.01,2013-05-31 17:29:00,
2013-05-31 12:31:00,71.0,50.3,29.77,SSW,202,8.0,8.0,48,0.00,,-RA,0.02,VWS V14.01,2013-05-31 17:31:00,
2013-05-31 12:34:00,71.0,50.3,29.77,South,180,6.6,6.6,48,0.00,,-RA,0.02,VWS V14.01,2013-05-31 17:34:00,
2013-05-31 12:35:00,71.0,50.3,29.77,SSE,158,5.8,6.6,48,0.00,,-RA,0.02,VWS V14.01,2013-05-31 17:35:00,
2013-05-31 12:36:00,71.0,50.3,29.77,ESE,112,11.0,11.0,48,0.00,,-RA,0.02,VWS V14.01,2013-05-31 17:36:00,
2013-05-31 12:38:00,71.0,50.3,29.77,SSW,202,8.4,11.0,48,0.00,,-RA,0.02,VWS V14.01,2013-05-31 17:38:00,
2013-05-31 12:40:00,71.0,50.3,29.77,SSE,158,3.4,8.4,48,0.00,,-RA,0.02,VWS V14.01,2013-05-31 17:40:00,
2013-05-31 12:42:00,71.0,50.3,29.78,SSE,158,0.0,4.8,48,0.00,,-RA,0.02,VWS V14.01,2013-05-31 17:42:00,
2013-05-31 12:43:00,71.0,50.3,29.78,SSW,202,0.0,0.0,48,0.00,,-RA,0.02,VWS V14.01,2013-05-31 17:43:00,
2013-05-31 12:46:00,71.0,50.9,29.78,South,180,0.0,4.4,49,0.00,,-RA,0.02,VWS V14.01,2013-05-31 17:46:00,
2013-05-31 12:47:00,71.0,50.9,29.78,South,180,7.6,7.6,49,0.00,,-RA,0.02,VWS V14.01,2013-05-31 17:47:00,
2013-05-31 12:48:00,71.0,51.5,29.78,SSE,158,10.2,10.2,50,0.00,,-RA,0.02,VWS V14.01,2013-05-31 17:48:00,
2013-05-31 12:49:00,71.0,51.5,29.78,South,180,11.6,11.6,50,0.00,,-RA,0.02,VWS V14.01,2013-05-31 17:49:00,
2013-05-31 12:52:00,71.0,50.9,29.78,South,180,7.6,8.0,49,0.00,,CLR,0.02,VWS V14.01,2013-05-31 17:52:00,
2013-05-31 12:53:00,71.0,50.9,29.78,SSW,202,4.8,7.6,49,0.00,,CLR,0.02,VWS V14.01,2013-05-31 17:53:00,
2013-05-31 12:57:00,71.0,50.9,29.78,SSW,202,10.6,14.6,49,0.00,,CLR,0.02,VWS V14.01,2013-05-31 17:57:00,
2013-05-31 12:58:00,71.0,51.5,29.78,SW,225,0.0,14.6,50,0.00,,CLR,0.02,VWS V14.01,2013-05-31 17:58:00,
2013-05-31 12:59:00,70.8,51.3,29.78,West,270,0.0,0.0,50,0.00,,CLR,0.02,VWS V14.01,2013-05-31 17:59:00,
2013-05-31 13:02:00,70.7,51.2,29.78,South,180,0.0,0.0,50,0.00,,CLR,0.02,VWS V14.01,2013-05-31 18:02:00,
2013-05-31 13:03:00,70.7,51.7,29.78,SSE,158,15.2,15.2,51,0.00,,CLR,0.02,VWS V14.01,2013-05-31 18:03:00,
2013-05-31 13:04:00,70.7,51.7,29.78,South,180,14.2,15.2,51,0.00,,CLR,0.02,VWS V14.01,2013-05-31 18:04:00,
2013-05-31 13:06:00,70.5,52.0,29.78,SE,135,6.2,14.2,52,0.00,,CLR,0.02,VWS V14.01,2013-05-31 18:06:00,
2013-05-31 13:10:00,70.3,52.4,29.77,SE,135,15.2,15.2,53,0.00,,CLR,0.02,VWS V14.01,2013-05-31 18:10:00,
2013-05-31 13:11:00,70.1,52.2,29.77,SSE,158,14.2,15.2,53,0.00,,CLR,0.02,VWS V14.01,2013-05-31 18:11:00,
2013-05-31 13:12:00,70.1,52.2,29.76,South,180,13.8,15.2,53,0.00,,CLR,0.02,VWS V14.01,2013-05-31 18:12:00,
2013-05-31 13:14:00,69.9,52.5,29.76,SSE,158,28.0,28.0,54,0.00,,CLR,0.02,VWS V14.01,2013-05-31 18:14:00,
2013-05-31 13:15:00,69.9,52.5,29.76,South,180,9.2,28.0,54,0.00,,CLR,0.02,VWS V14.01,2013-05-31 18:15:00,
2013-05-31 13:18:00,69.8,52.9,29.76,SSW,202,0.8,15.6,55,0.00,,CLR,0.02,VWS V14.01,2013-05-31 18:18:00,
2013-05-31 13:20:00,69.6,53.2,29.76,SSE,158,8.8,8.8,56,0.00,,CLR,0.02,VWS V14.01,2013-05-31 18:20:00,
2013-05-31 13:22:00,69.6,53.2,29.76,SSW,202,0.0,0.0,56,0.00,,CLR,0.02,VWS V14.01,2013-05-31 18:22:00,
2013-05-31 13:23:00,69.8,53.9,29.76,SSE,158,4.8,4.8,57,0.00,,CLR,0.02,VWS V14.01,2013-05-31 18:23:00,
2013-05-31 13:25:00,69.8,53.9,29.76,SW,225,4.8,6.6,57,0.00,,CLR,0.02,VWS V14.01,2013-05-31 18:25:00,
2013-05-31 13:26:00,69.6,53.7,29.76,SSE,158,4.4,6.6,57,0.00,,CLR,0.02,VWS V14.01,2013-05-31 18:26:00,
2013-05-31 13:30:00,69.6,54.2,29.76,SW,225,7.6,7.6,58,0.00,,CLR,0.02,VWS V14.01,2013-05-31 18:30:00,
2013-05-31 13:31:00,69.8,54.4,29.76,SSE,158,4.4,7.6,58,0.00,,CLR,0.02,VWS V14.01,2013-05-31 18:31:00,
2013-05-31 13:32:00,69.9,54.5,29.76,SSW,202,17.4,17.4,58,0.00,,CLR,0.02,VWS V14.01,2013-05-31 18:32:00,
2013-05-31 13:34:00,69.9,54.5,29.76,SE,135,23.6,23.6,58,0.00,,CLR,0.02,VWS V14.01,2013-05-31 18:34:00,
2013-05-31 13:36:00,69.9,54.5,29.76,SE,135,10.2,23.6,58,0.00,,CLR,0.02,VWS V14.01,2013-05-31 18:36:00,
2013-05-31 13:38:00,69.9,54.5,29.76,WSW,248,5.8,5.8,58,0.00,,CLR,0.02,VWS V14.01,2013-05-31 18:38:00,
2013-05-31 13:39:00,69.9,54.5,29.76,SW,225,3.4,5.8,58,0.00,,CLR,0.02,VWS V14.01,2013-05-31 18:39:00,
2013-05-31 13:41:00,70.1,54.7,29.76,SSE,158,4.8,4.8,58,0.00,,CLR,0.02,VWS V14.01,2013-05-31 18:41:00,
2013-05-31 13:42:00,69.9,54.9,29.76,SSE,158,5.2,5.2,59,0.00,,CLR,0.02,VWS V14.01,2013-05-31 18:42:00,
2013-05-31 13:44:00,70.1,55.1,29.76,SSW,202,4.8,7.0,59,0.00,,CLR,0.02,VWS V14.01,2013-05-31 18:44:00,
2013-05-31 13:47:00,70.1,55.1,29.75,SE,135,5.2,5.2,59,0.00,,CLR,0.02,VWS V14.01,2013-05-31 18:47:00,
2013-05-31 13:48:00,70.1,55.1,29.75,South,180,18.2,18.2,59,0.00,,CLR,0.02,VWS V14.01,2013-05-31 18:48:00,
2013-05-31 13:49:00,70.1,55.1,29.75,SSE,158,3.4,18.2,59,0.00,,CLR,0.02,VWS V14.01,2013-05-31 18:49:00,
2013-05-31 13:50:00,70.1,55.1,29.75,South,180,12.0,12.0,59,0.00,,CLR,0.02,VWS V14.01,2013-05-31 18:50:00,
2013-05-31 13:53:00,70.1,55.1,29.76,SSW,202,9.8,9.8,59,0.00,,CLR,0.02,VWS V14.01,2013-05-31 18:53:00,
2013-05-31 13:55:00,70.1,55.1,29.76,SSE,158,4.8,4.8,59,0.00,,CLR,0.02,VWS V14.01,2013-05-31 18:55:00,
2013-05-31 13:56:00,70.1,55.1,29.75,ENE,68,0.8,4.8,59,0.00,,CLR,0.02,VWS V14.01,2013-05-31 18:56:00,
2013-05-31 13:58:00,70.1,55.1,29.75,SSE,158,17.4,17.4,59,0.00,,CLR,0.02,VWS V14.01,2013-05-31 18:58:00,
2013-05-31 14:01:00,70.1,55.1,29.75,South,180,19.2,19.2,59,0.00,,CLR,0.02,VWS V14.01,2013-05-31 19:01:00,
2013-05-31 14:03:00,70.1,55.1,29.75,SSE,158,14.2,14.2,59,0.00,,CLR,0.02,VWS V14.01,2013-05-31 19:03:00,
2013-05-31 14:04:00,70.1,55.6,29.76,South,180,17.4,17.8,60,0.00,,CLR,0.02,VWS V14.01,2013-05-31 19:04:00,
2013-05-31 14:05:00,70.1,55.6,29.76,South,180,17.4,17.4,60,0.00,,CLR,0.02,VWS V14.01,2013-05-31 19:05:00,
2013-05-31 14:08:00,70.1,55.6,29.75,SSW,202,8.0,8.0,60,0.00,,CLR,0.02,VWS V14.01,2013-05-31 19:08:00,
2013-05-31 14:11:00,70.3,55.8,29.75,SSE,158,9.8,9.8,60,0.00,,CLR,0.02,VWS V14.01,2013-05-31 19:11:00,
2013-05-31 14:14:00,70.3,55.8,29.74,SSW,202,0.0,8.8,60,0.00,,CLR,0.02,VWS V14.01,2013-05-31 19:14:00,
2013-05-31 14:15:00,70.5,56.0,29.74,ESE,112,12.4,12.4,60,0.00,,CLR,0.02,VWS V14.01,2013-05-31 19:15:00,
2013-05-31 14:17:00,70.5,56.0,29.74,SSW,202,12.4,12.4,60,0.00,,CLR,0.02,VWS V14.01,2013-05-31 19:17:00,
2013-05-31 14:18:00,70.3,55.8,29.74,SW,225,4.0,12.4,60,0.00,,CLR,0.02,VWS V14.01,2013-05-31 19:18:00,
2013-05-31 14:20:00,70.5,56.0,29.73,SSE,158,10.2,19.6,60,0.00,,CLR,0.02,VWS V14.01,2013-05-31 19:20:00,
2013-05-31 14:21:00,70.3,55.8,29.72,West,270,13.8,13.8,60,0.00,,CLR,0.02,VWS V14.01,2013-05-31 19:21:00,
2013-05-31 14:25:00,70.1,55.6,29.70,WSW,248,0.0,0.0,60,0.00,,CLR,0.02,VWS V14.01,2013-05-31 19:25:00,
2013-05-31 14:26:00,70.3,55.8,29.70,South,180,11.6,11.6,60,0.00,,CLR,0.02,VWS V14.01,2013-05-31 19:26:00,
2013-05-31 14:27:00,70.1,55.6,29.71,SSW,202,4.0,4.0,60,0.00,,CLR,0.02,VWS V14.01,2013-05-31 19:27:00,
2013-05-31 14:29:00,70.1,56.0,29.72,SSE,158,0.0,0.0,61,0.00,,CLR,0.02,VWS V14.01,2013-05-31 19:29:00,
2013-05-31 14:31:00,70.1,56.0,29.72,South,180,4.8,4.8,61,0.00,,CLR,0.02,VWS V14.01,2013-05-31 19:31:00,
2013-05-31 14:32:00,70.1,56.0,29.72,SSE,158,12.0,12.0,61,0.00,,CLR,0.02,VWS V14.01,2013-05-31 19:32:00,
2013-05-31 14:34:00,70.1,56.5,29.73,South,180,0.0,12.0,62,0.00,,CLR,0.02,VWS V14.01,2013-05-31 19:34:00,
2013-05-31 14:36:00,70.3,56.7,29.73,SE,135,9.2,9.2,62,0.00,,CLR,0.02,VWS V14.01,2013-05-31 19:36:00,
2013-05-31 14:37:00,70.5,56.9,29.73,South,180,0.0,0.0,62,0.00,,CLR,0.02,VWS V14.01,2013-05-31 19:37:00,
2013-05-31 14:39:00,70.5,56.4,29.74,SSW,202,10.6,10.6,61,0.00,,CLR,0.02,VWS V14.01,2013-05-31 19:39:00,
2013-05-31 14:40:00,70.5,56.9,29.74,SSE,158,0.0,10.6,62,0.00,,CLR,0.02,VWS V14.01,2013-05-31 19:40:00,
2013-05-31 14:42:00,70.7,56.6,29.74,South,180,0.0,0.0,61,0.00,,CLR,0.02,VWS V14.01,2013-05-31 19:42:00,
2013-05-31 14:44:00,71.0,57.3,29.75,South,180,15.6,15.6,62,0.00,,CLR,0.02,VWS V14.01,2013-05-31 19:44:00,
2013-05-31 14:45:00,71.0,57.3,29.75,South,180,15.6,15.6,62,0.00,,CLR,0.02,VWS V14.01,2013-05-31 19:45:00,
2013-05-31 14:47:00,71.2,57.5,29.75,West,270,4.0,4.0,62,0.00,,CLR,0.02,VWS V14.01,2013-05-31 19:47:00,
2013-05-31 14:48:00,71.2,57.5,29.76,WSW,248,0.0,4.0,62,0.00,,CLR,0.02,VWS V14.01,2013-05-31 19:48:00,
2013-05-31 14:50:00,71.6,57.5,29.75,SE,135,12.0,12.0,61,0.00,,-RA,0.02,VWS V14.01,2013-05-31 19:50:00,
2013-05-31 14:51:00,71.4,56.8,29.75,SW,225,0.0,0.0,60,0.00,,-RA,0.02,VWS V14.01,2013-05-31 19:51:00,
2013-05-31 14:52:00,71.7,57.1,29.75,South,180,4.4,4.4,60,0.00,,-RA,0.02,VWS V14.01,2013-05-31 19:52:00,
2013-05-31 14:55:00,71.7,57.5,29.75,SW,225,0.0,0.0,61,0.00,,-RA,0.02,VWS V14.01,2013-05-31 19:55:00,
2013-05-31 14:56:00,71.9,57.7,29.75,SE,135,4.8,4.8,61,0.00,,-RA,0.02,VWS V14.01,2013-05-31 19:56:00,
2013-05-31 15:00:00,72.5,57.8,29.75,SSW,202,9.2,9.2,60,0.00,,-RA,0.02,VWS V14.01,2013-05-31 20:00:00,
2013-05-31 15:01:00,72.5,57.8,29.75,SSW,202,9.2,9.2,60,0.00,,-RA,0.02,VWS V14.01,2013-05-31 20:01:00,
2013-05-31 15:02:00,72.5,57.4,29.76,SSW,202,0.0,9.2,59,0.00,,-RA,0.02,VWS V14.01,2013-05-31 20:02:00,
2013-05-31 15:04:00,72.3,56.2,29.75,WSW,248,0.0,2.6,57,0.00,,-RA,0.02,VWS V14.01,2013-05-31 20:04:00,
2013-05-31 15:06:00,72.3,56.2,29.75,SSW,202,13.8,13.8,57,0.00,,-RA,0.02,VWS V14.01,2013-05-31 20:06:00,
2013-05-31 15:07:00,72.3,56.2,29.76,South,180,8.4,8.4,57,0.00,,-RA,0.02,VWS V14.01,2013-05-31 20:07:00,
2013-05-31 15:08:00,72.3,56.2,29.76,South,180,0.0,8.4,57,0.00,,-RA,0.02,VWS V14.01,2013-05-31 20:08:00,
2013-05-31 15:09:00,72.3,56.2,29.75,South,180,4.8,4.8,57,0.00,,-RA,0.02,VWS V14.01,2013-05-31 20:09:00,
2013-05-31 15:14:00,72.3,56.7,29.75,SW,225,0.0,2.6,58,0.00,,-RA,0.02,VWS V14.01,2013-05-31 20:14:00,
2013-05-31 15:17:00,72.5,57.4,29.75,SSE,158,13.4,13.4,59,0.00,,-RA,0.02,VWS V14.01,2013-05-31 20:17:00,
2013-05-31 15:18:00,72.5,56.9,29.75,SW,225,6.2,13.4,58,0.00,,-RA,0.02,VWS V14.01,2013-05-31 20:18:00,
2013-05-31 15:19:00,72.5,56.9,29.75,SE,135,0.0,0.0,58,0.00,,-RA,0.02,VWS V14.01,2013-05-31 20:19:00,
2013-05-31 15:20:00,72.5,56.9,29.75,SSE,158,12.8,12.8,58,0.00,,-RA,0.02,VWS V14.01,2013-05-31 20:20:00,
2013-05-31 15:23:00,72.6,57.0,29.75,SSW,202,5.2,5.2,58,0.00,,-RA,0.02,VWS V14.01,2013-05-31 20:23:00,
2013-05-31 15:24:00,72.6,57.0,29.75,SSE,158,8.8,8.8,58,0.00,,-RA,0.02,VWS V14.01,2013-05-31 20:24:00,
2013-05-31 15:25:00,72.6,57.0,29.75,SSE,158,0.0,0.0,58,0.00,,-RA,0.02,VWS V14.01,2013-05-31 20:25:00,
2013-05-31 15:26:00,72.6,57.0,29.75,SSW,202,0.0,0.0,58,0.00,,-RA,0.02,VWS V14.01,2013-05-31 20:26:00,
2013-05-31 15:28:00,72.8,57.7,29.75,SSE,158,3.4,17.8,59,0.00,,-RA,0.02,VWS V14.01,2013-05-31 20:28:00,
2013-05-31 15:29:00,72.8,57.7,29.75,SSE,158,3.4,3.4,59,0.00,,-RA,0.02,VWS V14.01,2013-05-31 20:29:00,
2013-05-31 15:30:00,72.8,57.7,29.76,SE,135,10.6,10.6,59,0.00,,-RA,0.02,VWS V14.01,2013-05-31 20:30:00,
2013-05-31 15:32:00,73.0,57.8,29.75,SSW,202,10.2,20.4,59,0.00,,-RA,0.02,VWS V14.01,2013-05-31 20:32:00,
2013-05-31 15:34:00,72.8,57.7,29.75,South,180,9.2,10.2,59,0.00,,-RA,0.02,VWS V14.01,2013-05-31 20:34:00,
2013-05-31 15:36:00,72.8,57.7,29.75,South,180,4.4,4.4,59,0.00,,-RA,0.02,VWS V14.01,2013-05-31 20:36:00,
2013-05-31 15:37:00,72.8,57.7,29.75,SE,135,0.0,0.0,59,0.00,,-RA,0.02,VWS V14.01,2013-05-31 20:37:00,
2013-05-31 15:40:00,73.2,58.5,29.75,SSW,202,6.6,6.6,60,0.00,,-RA,0.02,VWS V14.01,2013-05-31 20:40:00,
2013-05-31 15:41:00,73.2,58.5,29.75,SSW,202,6.6,6.6,60,0.00,,-RA,0.02,VWS V14.01,2013-05-31 20:41:00,
2013-05-31 15:42:00,73.4,58.2,29.75,SSW,202,9.2,15.6,59,0.00,,-RA,0.02,VWS V14.01,2013-05-31 20:42:00,
2013-05-31 15:43:00,73.4,58.2,29.75,SSW,202,9.2,9.2,59,0.00,,-RA,0.02,VWS V14.01,2013-05-31 20:43:00,
2013-05-31 15:46:00,73.4,58.2,29.75,WSW,248,4.8,6.6,59,0.00,,-RA,0.02,VWS V14.01,2013-05-31 20:46:00,
2013-05-31 15:47:00,73.4,58.2,29.75,WSW,248,4.8,4.8,59,0.00,,-RA,0.02,VWS V14.01,2013-05-31 20:47:00,
2013-05-31 15:48:00,73.5,58.3,29.75,SW,225,0.0,4.8,59,0.00,,-RA,0.02,VWS V14.01,2013-05-31 20:48:00,
2013-05-31 15:49:00,73.5,58.3,29.75,South,180,2.6,2.6,59,0.00,,-RA,0.02,VWS V14.01,2013-05-31 20:49:00,
2013-05-31 15:51:00,73.7,59.0,29.75,SSE,158,5.2,5.2,60,0.00,,FEW050,0.02,VWS V14.01,2013-05-31 20:51:00,
2013-05-31 15:53:00,74.1,59.3,29.75,South,180,2.6,8.4,60,0.00,,FEW050,0.02,VWS V14.01,2013-05-31 20:53:00,
2013-05-31 15:54:00,74.1,58.9,29.75,SSW,202,0.0,8.4,59,0.00,,FEW050,0.02,VWS V14.01,2013-05-31 20:54:00,
2013-05-31 15:56:00,74.3,59.1,29.75,SSW,202,0.0,0.0,59,0.00,,FEW050,0.02,VWS V14.01,2013-05-31 20:56:00,
2013-05-31 15:57:00,74.3,58.6,29.75,SSE,158,6.6,6.6,58,0.00,,FEW050,0.02,VWS V14.01,2013-05-31 20:57:00,
2013-05-31 15:58:00,74.3,58.1,29.76,WSW,248,0.0,6.6,57,0.00,,FEW050,0.02,VWS V14.01,2013-05-31 20:58:00,
2013-05-31 16:00:00,74.3,58.1,29.75,SSW,202,8.8,8.8,57,0.00,,FEW050,0.02,VWS V14.01,2013-05-31 21:00:00,
2013-05-31 16:02:00,74.1,58.4,29.75,SE,135,2.6,2.6,58,0.00,,FEW050,0.02,VWS V14.01,2013-05-31 21:02:00,
2013-05-31 16:03:00,74.1,58.4,29.75,South,180,8.4,8.4,58,0.00,,FEW050,0.02,VWS V14.01,2013-05-31 21:03:00,
2013-05-31 16:05:00,74.1,58.4,29.75,South,180,0.0,8.0,58,0.00,,FEW050,0.02,VWS V14.01,2013-05-31 21:05:00,
2013-05-31 16:06:00,73.9,58.2,29.75,West,270,0.0,8.0,58,0.00,,FEW050,0.02,VWS V14.01,2013-05-31 21:06:00,
2013-05-31 16:07:00,73.9,58.7,29.75,WSW,248,0.0,0.0,59,0.00,,FEW050,0.02,VWS V14.01,2013-05-31 21:07:00,
2013-05-31 16:08:00,74.1,58.9,29.75,SW,225,0.0,0.0,59,0.00,,FEW050,0.02,VWS V14.01,2013-05-31 21:08:00,
2013-05-31 16:10:00,74.1,58.9,29.75,SSW,202,4.8,9.8,59,0.00,,FEW050,0.02,VWS V14.01,2013-05-31 21:10:00,
2013-05-31 16:11:00,74.1,58.9,29.75,WSW,248,4.4,4.8,59,0.00,,FEW050,0.02,VWS V14.01,2013-05-31 21:11:00,
2013-05-31 16:13:00,74.1,58.9,29.75,SSE,158,7.0,7.0,59,0.00,,FEW050,0.02,VWS V14.01,2013-05-31 21:13:00,
2013-05-31 16:15:00,73.9,58.7,29.75,SSE,158,13.8,16.0,59,0.00,,FEW050,0.02,VWS V14.01,2013-05-31 21:15:00,
2013-05-31 16:18:00,73.7,58.5,29.75,NW,315,0.0,16.4,59,0.00,,FEW050,0.02,VWS V14.01,2013-05-31 21:18:00,
2013-05-31 16:19:00,73.5,58.3,29.75,South,180,6.2,6.2,59,0.00,,FEW050,0.02,VWS V14.01,2013-05-31 21:19:00,
2013-05-31 16:20:00,73.5,58.3,29.75,SSW,202,10.6,10.6,59,0.00,,FEW050,0.02,VWS V14.01,2013-05-31 21:20:00,
2013-05-31 16:23:00,73.5,58.8,29.74,South,180,5.2,5.2,60,0.00,,FEW050,0.02,VWS V14.01,2013-05-31 21:23:00,
2013-05-31 16:24:00,73.4,58.7,29.74,SSE,158,0.0,5.2,60,0.00,,FEW050,0.02,VWS V14.01,2013-05-31 21:24:00,
2013-05-31 16:25:00,73.5,58.8,29.74,SSW,202,5.2,5.2,60,0.00,,FEW050,0.02,VWS V14.01,2013-05-31 21:25:00,
2013-05-31 16:26:00,73.5,59.2,29.74,SE,135,0.0,5.2,61,0.00,,FEW050,0.02,VWS V14.01,2013-05-31 21:26:00,
2013-05-31 16:28:00,73.5,59.2,29.74,SSW,202,3.4,3.4,61,0.00,,FEW050,0.02,VWS V14.01,2013-05-31 21:28:00,
2013-05-31 16:31:00,73.5,59.2,29.74,ESE,112,9.2,9.2,61,0.00,,FEW050,0.02,VWS V14.01,2013-05-31 21:31:00,
2013-05-31 16:33:00,73.5,59.2,29.74,SSE,158,8.8,8.8,61,0.00,,FEW050,0.02,VWS V14.01,2013-05-31 21:33:00,
2013-05-31 16:34:00,73.7,59.4,29.74,SSE,158,0.0,8.8,61,0.00,,FEW050,0.02,VWS V14.01,2013-05-31 21:34:00,
2013-05-31 16:36:00,73.5,58.8,29.74,South,180,4.8,4.8,60,0.00,,FEW050,0.02,VWS V14.01,2013-05-31 21:36:00,
2013-05-31 16:40:00,73.5,59.2,29.74,SSW,202,6.6,6.6,61,0.00,,FEW050,0.02,VWS V14.01,2013-05-31 21:40:00,
2013-05-31 16:41:00,73.5,59.2,29.74,SSE,158,6.2,6.6,61,0.00,,FEW050,0.02,VWS V14.01,2013-05-31 21:41:00,
2013-05-31 16:42:00,73.5,59.2,29.74,SW,225,4.8,6.6,61,0.00,,FEW050,0.02,VWS V14.01,2013-05-31 21:42:00,
2013-05-31 16:43:00,73.5,59.2,29.74,SE,135,8.0,8.0,61,0.00,,FEW050,0.02,VWS V14.01,2013-05-31 21:43:00,
2013-05-31 16:46:00,73.7,59.4,29.74,South,180,8.8,10.2,61,0.00,,FEW050,0.02,VWS V14.01,2013-05-31 21:46:00,
2013-05-31 16:47:00,73.7,59.4,29.74,SSW,202,9.2,9.2,61,0.00,,FEW050,0.02,VWS V14.01,2013-05-31 21:47:00,
2013-05-31 16:49:00,73.9,59.6,29.74,South,180,11.6,11.6,61,0.00,,FEW050,0.02,VWS V14.01,2013-05-31 21:49:00,
2013-05-31 16:50:00,73.9,59.6,29.74,South,180,0.0,11.6,61,0.00,,FEW120,0.02,VWS V14.01,2013-05-31 21:50:00,
2013-05-31 16:51:00,73.7,59.4,29.74,WSW,248,0.0,0.0,61,0.00,,FEW120,0.02,VWS V14.01,2013-05-31 21:51:00,
2013-05-31 16:52:00,73.7,59.4,29.74,SSW,202,0.0,0.0,61,0.00,,FEW120,0.02,VWS V14.01,2013-05-31 21:52:00,
2013-05-31 16:55:00,73.5,59.2,29.74,SSW,202,5.8,15.6,61,0.00,,FEW120,0.02,VWS V14.01,2013-05-31 21:55:00,
2013-05-31 16:56:00,73.7,59.4,29.74,SSE,158,8.8,8.8,61,0.00,,FEW120,0.02,VWS V14.01,2013-05-31 21:56:00,
2013-05-31 16:58:00,73.5,59.2,29.74,SSW,202,0.0,8.8,61,0.00,,FEW120,0.02,VWS V14.01,2013-05-31 21:58:00,
2013-05-31 17:00:00,73.2,59.0,29.73,SSW,202,4.4,4.4,61,0.00,,FEW120,0.02,VWS V14.01,2013-05-31 22:00:00,
2013-05-31 17:01:00,73.4,59.6,29.74,SSE,158,0.0,4.4,62,0.00,,FEW120,0.02,VWS V14.01,2013-05-31 22:01:00,
2013-05-31 17:03:00,73.2,59.4,29.74,South,180,2.6,12.4,62,0.00,,FEW120,0.02,VWS V14.01,2013-05-31 22:03:00,
2013-05-31 17:04:00,73.2,59.4,29.73,South,180,0.0,12.4,62,0.00,,FEW120,0.02,VWS V14.01,2013-05-31 22:04:00,
2013-05-31 17:06:00,73.4,60.0,29.73,South,180,7.6,7.6,63,0.00,,FEW120,0.02,VWS V14.01,2013-05-31 22:06:00,
2013-05-31 17:08:00,73.4,60.0,29.72,SSE,158,0.0,7.6,63,0.00,,FEW120,0.02,VWS V14.01,2013-05-31 22:08:00,
2013-05-31 17:09:00,73.4,60.0,29.72,SSW,202,12.8,12.8,63,0.00,,FEW120,0.02,VWS V14.01,2013-05-31 22:09:00,
2013-05-31 17:10:00,73.2,59.9,29.72,SSE,158,11.0,12.8,63,0.00,,FEW120,0.02,VWS V14.01,2013-05-31 22:10:00,
2013-05-31 17:12:00,73.4,60.0,29.73,SSW,202,11.6,11.6,63,0.00,,FEW120,0.02,VWS V14.01,2013-05-31 22:12:00,
2013-05-31 17:13:00,73.2,59.9,29.73,South,180,3.4,11.6,63,0.00,,FEW120,0.02,VWS V14.01,2013-05-31 22:13:00,
2013-05-31 17:14:00,73.2,59.9,29.73,SSW,202,15.2,15.2,63,0.00,,FEW120,0.02,VWS V14.01,2013-05-31 22:14:00,
2013-05-31 17:17:00,73.4,60.0,29.72,South,180,11.6,11.6,63,0.00,,FEW120,0.02,VWS V14.01,2013-05-31 22:17:00,
2013-05-31 17:18:00,73.2,59.9,29.72,South,180,0.0,11.6,63,0.00,,FEW120,0.02,VWS V14.01,2013-05-31 22:18:00,
2013-05-31 17:19:00,73.4,60.0,29.72,South,180,11.6,11.6,63,0.00,,FEW120,0.02,VWS V14.01,2013-05-31 22:19:00,
2013-05-31 17:23:00,73.4,60.0,29.72,South,180,4.8,8.4,63,0.00,,FEW120,0.02,VWS V14.01,2013-05-31 22:23:00,
2013-05-31 17:24:00,73.4,60.0,29.72,SW,225,4.8,4.8,63,0.00,,FEW120,0.02,VWS V14.01,2013-05-31 22:24:00,
2013-05-31 17:25:00,73.5,60.2,29.72,ESE,112,2.6,4.8,63,0.00,,FEW120,0.02,VWS V14.01,2013-05-31 22:25:00,
2013-05-31 17:26:00,73.5,60.2,29.72,SSW,202,0.0,4.8,63,0.00,,FEW120,0.02,VWS V14.01,2013-05-31 22:26:00,
2013-05-31 17:27:00,73.5,60.2,29.72,SSW,202,0.0,0.0,63,0.00,,FEW120,0.02,VWS V14.01,2013-05-31 22:27:00,
2013-05-31 17:31:00,73.5,60.2,29.72,SSE,158,0.0,0.0,63,0.00,,FEW120,0.02,VWS V14.01,2013-05-31 22:31:00,
2013-05-31 17:32:00,73.7,60.3,29.72,South,180,3.4,3.4,63,0.00,,FEW120,0.02,VWS V14.01,2013-05-31 22:32:00,
2013-05-31 17:34:00,73.7,60.3,29.71,South,180,4.4,15.2,63,0.00,,FEW120,0.02,VWS V14.01,2013-05-31 22:34:00,
2013-05-31 17:36:00,73.7,60.3,29.71,SSW,202,8.4,8.4,63,0.00,,FEW120,0.02,VWS V14.01,2013-05-31 22:36:00,
2013-05-31 17:38:00,73.7,59.9,29.72,South,180,0.0,0.0,62,0.00,,FEW120,0.02,VWS V14.01,2013-05-31 22:38:00,
2013-05-31 17:40:00,73.9,60.1,29.72,SSE,158,4.8,4.8,62,0.00,,FEW120,0.02,VWS V14.01,2013-05-31 22:40:00,
2013-05-31 17:42:00,73.9,60.1,29.72,SSE,158,4.8,17.0,62,0.00,,FEW120,0.02,VWS V14.01,2013-05-31 22:42:00,
2013-05-31 17:44:00,73.7,59.9,29.72,SSE,158,4.0,4.8,62,0.00,,FEW120,0.02,VWS V14.01,2013-05-31 22:44:00,
2013-05-31 17:46:00,73.7,60.3,29.72,SSE,158,0.0,8.8,63,0.00,,FEW120,0.02,VWS V14.01,2013-05-31 22:46:00,
2013-05-31 17:48:00,73.5,60.2,29.72,SSW,202,8.4,8.4,63,0.00,,FEW120,0.02,VWS V14.01,2013-05-31 22:48:00,
2013-05-31 17:50:00,73.7,60.3,29.72,SW,225,0.0,5.2,63,0.00,,BKN021,0.02,VWS V14.01,2013-05-31 22:50:00,
2013-05-31 17:52:00,73.7,60.3,29.72,SSE,158,0.0,0.0,63,0.00,,BKN021,0.02,VWS V14.01,2013-05-31 22:52:00,
2013-05-31 17:53:00,73.7,60.3,29.73,SE,135,8.4,8.4,63,0.00,,BKN021,0.02,VWS V14.01,2013-05-31 22:53:00,
2013-05-31 17:54:00,73.5,60.2,29.72,South,180,6.2,8.4,63,0.00,,BKN021,0.02,VWS V14.01,2013-05-31 22:54:00,
2013-05-31 17:55:00,73.5,60.2,29.72,South,180,6.2,6.2,63,0.00,,BKN021,0.02,VWS V14.01,2013-05-31 22:55:00,
2013-05-31 17:56:00,73.5,60.2,29.72,West,270,0.0,6.2,63,0.00,,BKN021,0.02,VWS V14.01,2013-05-31 22:56:00,
2013-05-31 17:57:00,73.5,60.2,29.72,West,270,0.0,0.0,63,0.00,,BKN021,0.02,VWS V14.01,2013-05-31 22:57:00,
2013-05-31 17:59:00,73.5,60.2,29.72,South,180,0.0,0.0,63,0.00,,BKN021,0.02,VWS V14.01,2013-05-31 22:59:00,
2013-05-31 18:00:00,73.7,60.3,29.72,SSE,158,5.2,5.2,63,0.00,,BKN021,0.02,VWS V14.01,2013-05-31 23:00:00,
2013-05-31 18:04:00,74.1,60.3,29.72,ESE,112,3.4,3.4,62,0.00,,BKN021,0.02,VWS V14.01,2013-05-31 23:04:00,
2013-05-31 18:05:00,74.3,60.5,29.71,South,180,0.0,0.0,62,0.00,,BKN021,0.02,VWS V14.01,2013-05-31 23:05:00,
2013-05-31 18:06:00,74.3,60.0,29.71,SE,135,6.2,6.2,61,0.00,,BKN021,0.02,VWS V14.01,2013-05-31 23:06:00,
2013-05-31 18:08:00,74.3,60.0,29.71,SSE,158,11.6,11.6,61,0.00,,BKN021,0.02,VWS V14.01,2013-05-31 23:08:00,
2013-05-31 18:10:00,74.3,60.0,29.71,SSE,158,5.8,11.6,61,0.00,,BKN021,0.02,VWS V14.01,2013-05-31 23:10:00,
2013-05-31 18:12:00,74.3,60.0,29.71,South,180,0.0,4.0,61,0.00,,BKN021,0.02,VWS V14.01,2013-05-31 23:12:00,
2013-05-31 18:14:00,74.1,60.3,29.71,WSW,248,0.0,0.0,62,0.00,,BKN021,0.02,VWS V14.01,2013-05-31 23:14:00,
2013-05-31 18:16:00,73.9,60.1,29.71,South,180,10.2,10.2,62,0.00,,BKN021,0.02,VWS V14.01,2013-05-31 23:16:00,
2013-05-31 18:18:00,73.7,59.9,29.72,SW,225,0.0,0.0,62,0.00,,BKN021,0.02,VWS V14.01,2013-05-31 23:18:00,
2013-05-31 18:19:00,73.7,59.9,29.72,West,270,0.0,0.0,62,0.00,,BKN021,0.02,VWS V14.01,2013-05-31 23:19:00,
2013-05-31 18:21:00,73.5,59.7,29.72,SSE,158,4.0,4.0,62,0.00,,BKN021,0.02,VWS V14.01,2013-05-31 23:21:00,
2013-05-31 18:22:00,73.4,59.6,29.72,South,180,5.2,5.2,62,0.00,,BKN021,0.02,VWS V14.01,2013-05-31 23:22:00,
2013-05-31 18:24:00,73.4,59.6,29.72,SSE,158,5.2,5.2,62,0.00,,BKN021,0.02,VWS V14.01,2013-05-31 23:24:00,
2013-05-31 18:26:00,73.2,59.4,29.71,SSE,158,0.0,0.0,62,0.00,,BKN021,0.02,VWS V14.01,2013-05-31 23:26:00,
2013-05-31 18:27:00,73.2,59.9,29.71,South,180,0.0,0.0,63,0.00,,BKN021,0.02,VWS V14.01,2013-05-31 23:27:00,
2013-05-31 18:28:00,73.0,59.7,29.71,South,180,0.0,0.0,63,0.00,,BKN021,0.02,VWS V14.01,2013-05-31 23:28:00,
2013-05-31 18:32:00,73.0,59.7,29.71,WNW,292,0.0,4.8,63,0.00,,BKN021,0.02,VWS V14.01,2013-05-31 23:32:00,
2013-05-31 18:34:00,73.0,59.7,29.72,WSW,248,0.0,4.4,63,0.00,,BKN021,0.02,VWS V14.01,2013-05-31 23:34:00,
2013-05-31 18:36:00,72.8,59.9,29.72,SW,225,0.0,0.0,64,0.00,,BKN021,0.02,VWS V14.01,2013-05-31 23:36:00,
2013-05-31 18:37:00,73.0,60.1,29.72,SSW,202,0.0,0.0,64,0.00,,BKN021,0.02,VWS V14.01,2013-05-31 23:37:00,
2013-05-31 18:38:00,73.0,60.1,29.72,SE,135,6.6,6.6,64,0.00,,BKN021,0.02,VWS V14.01,2013-05-31 23:38:00,
2013-05-31 18:40:00,72.8,59.9,29.71,South,180,1.2,13.4,64,0.00,,BKN021,0.02,VWS V14.01,2013-05-31 23:40:00,
2013-05-31 18:41:00,72.8,59.9,29.71,South,180,1.2,1.2,64,0.00,,BKN021,0.02,VWS V14.01,2013-05-31 23:41:00,
2013-05-31 18:42:00,73.0,60.1,29.71,South,180,3.0,3.0,64,0.00,,BKN021,0.02,VWS V14.01,2013-05-31 23:42:00,
2013-05-31 18:46:00,73.0,60.1,29.71,South,180,1.6,1.6,64,0.00,,BKN021,0.02,VWS V14.01,2013-05-31 23:46:00,
2013-05-31 18:47:00,73.0,60.1,29.71,SSE,158,5.2,5.2,64,0.00,,BKN021,0.02,VWS V14.01,2013-05-31 23:47:00,
2013-05-31 18:50:00,73.2,60.3,29.71,South,180,0.0,0.0,64,0.00,,BKN021,0.02,VWS V14.01,2013-05-31 23:50:00,
2013-05-31 18:52:00,73.2,60.7,29.72,South,180,5.8,5.8,65,0.00,,BKN021,0.02,VWS V14.01,2013-05-31 23:52:00,
2013-05-31 18:53:00,73.2,60.7,29.71,South,180,0.0,0.0,65,0.00,,BKN021,0.02,VWS V14.01,2013-05-31 23:53:00,
2013-05-31 18:54:00,73.4,60.9,29.72,South,180,0.0,3.4,65,0.00,,BKN021,0.02,VWS V14.01,2013-05-31 23:54:00,
2013-05-31 18:58:00,73.4,60.9,29.72,South,180,10.2,10.2,65,0.00,,BKN021,0.02,VWS V14.01,2013-05-31 23:58:00,
2013-05-31 19:00:00,73.4,60.9,29.72,South,180,8.8,10.2,65,0.00,,SCT021,0.02,VWS V14.01,2013-06-01 00:00:00,
2013-05-31 19:06:00,73.2,60.3,29.72,South,180,4.8,4.8,64,0.00,,SCT021,0.02,VWS V14.01,2013-06-01 00:06:00,
2013-05-31 19:07:00,73.2,60.3,29.72,SSW,202,6.6,6.6,64,0.00,,SCT021,0.02,VWS V14.01,2013-06-01 00:07:00,
2013-05-31 19:08:00,73.2,60.3,29.72,South,180,0.0,6.6,64,0.00,,SCT021,0.02,VWS V14.01,2013-06-01 00:08:00,
2013-05-31 19:12:00,73.0,60.5,29.72,South,180,0.0,3.4,65,0.00,,SCT021,0.02,VWS V14.01,2013-06-01 00:12:00,
2013-05-31 19:13:00,73.0,60.1,29.72,SSW,202,0.0,0.0,64,0.00,,SCT021,0.02,VWS V14.01,2013-06-01 00:13:00,
2013-05-31 19:14:00,73.2,60.3,29.71,SSE,158,0.0,0.0,64,0.00,,SCT021,0.02,VWS V14.01,2013-06-01 00:14:00,
2013-05-31 19:16:00,73.0,60.1,29.71,South,180,0.0,5.8,64,0.00,,SCT021,0.02,VWS V14.01,2013-06-01 00:16:00,
2013-05-31 19:17:00,73.0,60.1,29.71,South,180,0.0,0.0,64,0.00,,SCT021,0.02,VWS V14.01,2013-06-01 00:17:00,
2013-05-31 19:18:00,73.0,60.1,29.71,SSE,158,0.0,0.0,64,0.00,,SCT021,0.02,VWS V14.01,2013-06-01 00:18:00,
2013-05-31 19:22:00,73.0,60.1,29.70,SSE,158,0.0,0.0,64,0.00,,SCT021,0.02,VWS V14.01,2013-06-01 00:22:00,
2013-05-31 19:24:00,73.0,60.1,29.70,SE,135,0.0,0.0,64,0.00,,SCT021,0.02,VWS V14.01,2013-06-01 00:24:00,
2013-05-31 19:26:00,73.0,60.1,29.70,South,180,0.0,0.0,64,0.00,,SCT021,0.02,VWS V14.01,2013-06-01 00:26:00,
2013-05-31 19:27:00,72.8,59.9,29.70,South,180,0.0,0.0,64,0.00,,SCT021,0.02,VWS V14.01,2013-06-01 00:27:00,
2013-05-31 19:28:00,72.8,60.4,29.70,South,180,4.0,4.0,65,0.00,,SCT021,0.02,VWS V14.01,2013-06-01 00:28:00,
2013-05-31 19:31:00,72.8,60.4,29.70,SSW,202,4.8,4.8,65,0.00,,SCT021,0.02,VWS V14.01,2013-06-01 00:31:00,
2013-05-31 19:32:00,72.6,60.2,29.70,South,180,7.0,7.0,65,0.00,,SCT021,0.02,VWS V14.01,2013-06-01 00:32:00,
2013-05-31 19:33:00,72.8,60.4,29.70,SSE,158,0.0,7.0,65,0.00,,SCT021,0.02,VWS V14.01,2013-06-01 00:33:00,
2013-05-31 19:36:00,72.8,60.4,29.71,SSE,158,0.0,0.0,65,0.00,,SCT021,0.02,VWS V14.01,2013-06-01 00:36:00,
2013-05-31 19:38:00,72.8,60.8,29.71,South,180,0.0,0.0,66,0.00,,SCT021,0.02,VWS V14.01,2013-06-01 00:38:00,
2013-05-31 19:40:00,72.6,60.6,29.71,South,180,0.0,0.0,66,0.00,,SCT021,0.02,VWS V14.01,2013-06-01 00:40:00,
2013-05-31 19:42:00,72.6,60.6,29.71,SSW,202,0.0,0.0,66,0.00,,SCT021,0.02,VWS V14.01,2013-06-01 00:42:00,
2013-05-31 19:43:00,72.6,60.6,29.71,SE,135,0.0,0.0,66,0.00,,SCT021,0.02,VWS V14.01,2013-06-01 00:43:00,
2013-05-31 19:44:00,72.6,61.0,29.71,SSW,202,0.0,0.0,67,0.00,,SCT021,0.02,VWS V14.01,2013-06-01 00:44:00,
2013-05-31 19:45:00,72.8,61.2,29.71,SSW,202,0.0,0.0,67,0.00,,SCT021,0.02,VWS V14.01,2013-06-01 00:45:00,
2013-05-31 19:46:00,72.6,61.0,29.70,South,180,8.8,8.8,67,0.00,,SCT021,0.02,VWS V14.01,2013-06-01 00:46:00,
2013-05-31 19:47:00,72.6,61.0,29.70,South,180,2.2,8.8,67,0.00,,SCT021,0.02,VWS V14.01,2013-06-01 00:47:00,
2013-05-31 19:49:00,72.6,61.0,29.70,SSE,158,0.0,0.0,67,0.00,,SCT021,0.02,VWS V14.01,2013-06-01 00:49:00,
2013-05-31 19:50:00,72.6,61.0,29.70,SSW,202,3.4,3.4,67,0.00,,SCT021,0.02,VWS V14.01,2013-06-01 00:50:00,
2013-05-31 19:52:00,72.5,60.9,29.70,SSW,202,0.0,0.0,67,0.00,,SCT021,0.02,VWS V14.01,2013-06-01 00:52:00,
2013-05-31 19:54:00,72.5,61.3,29.70,South,180,0.0,0.0,68,0.00,,SCT021,0.02,VWS V14.01,2013-06-01 00:54:00,
2013-05-31 19:55:00,72.5,61.3,29.70,SSW,202,5.2,5.2,68,0.00,,SCT021,0.02,VWS V14.01,2013-06-01 00:55:00,
2013-05-31 19:56:00,72.3,61.2,29.70,SSW,202,4.0,4.0,68,0.00,,SCT021,0.02,VWS V14.01,2013-06-01 00:56:00,
2013-05-31 19:58:00,72.3,62.0,29.71,SSE,158,0.0,4.0,70,0.00,,SCT021,0.02,VWS V14.01,2013-06-01 00:58:00,
2013-05-31 19:59:00,72.3,62.0,29.71,SSW,202,6.6,6.6,70,0.00,,SCT021,0.02,VWS V14.01,2013-06-01 00:59:00,
2013-05-31 20:00:00,72.3,62.0,29.71,SSW,202,0.0,0.0,70,0.00,,SCT021,0.02,VWS V14.01,2013-06-01 01:00:00,
2013-05-31 20:01:00,72.3,62.0,29.71,South,180,9.2,9.2,70,0.00,,SCT021,0.02,VWS V14.01,2013-06-01 01:01:00,
2013-05-31 20:03:00,71.9,61.6,29.71,South,180,0.0,6.2,70,0.00,,SCT021,0.02,VWS V14.01,2013-06-01 01:03:00,
2013-05-31 20:04:00,71.9,61.6,29.71,SSW,202,8.8,8.8,70,0.00,,SCT021,0.02,VWS V14.01,2013-06-01 01:04:00,
2013-05-31 20:06:00,72.1,62.2,29.71,South,180,2.6,2.6,71,0.00,,SCT021,0.02,VWS V14.01,2013-06-01 01:06:00,
2013-05-31 20:07:00,71.9,62.0,29.71,SE,135,0.0,2.6,71,0.00,,SCT021,0.02,VWS V14.01,2013-06-01 01:07:00,
2013-05-31 20:08:00,71.9,62.0,29.71,South,180,3.4,3.4,71,0.00,,SCT021,0.02,VWS V14.01,2013-06-01 01:08:00,
2013-05-31 20:10:00,71.9,62.0,29.71,South,180,9.2,9.2,71,0.00,,SCT021,0.02,VWS V14.01,2013-06-01 01:10:00,
2013-05-31 20:13:00,71.9,62.0,29.71,SSW,202,0.0,0.0,71,0.00,,SCT021,0.02,VWS V14.01,2013-06-01 01:13:00,
2013-05-31 20:14:00,71.9,62.0,29.71,SSE,158,0.0,0.0,71,0.00,,SCT021,0.02,VWS V14.01,2013-06-01 01:14:00,
2013-05-31 20:16:00,71.9,62.4,29.70,SSE,158,4.4,4.4,72,0.00,,SCT021,0.02,VWS V14.01,2013-06-01 01:16:00,
2013-05-31 20:17:00,71.7,62.2,29.71,North,0,0.0,4.4,72,0.00,,SCT021,0.02,VWS V14.01,2013-06-01 01:17:00,
2013-05-31 20:19:00,71.7,62.2,29.70,South,180,0.0,0.0,72,0.00,,SCT021,0.02,VWS V14.01,2013-06-01 01:19:00,
2013-05-31 20:22:00,71.7,62.2,29.70,South,180,0.0,0.0,72,0.00,,SCT021,0.02,VWS V14.01,2013-06-01 01:22:00,
2013-05-31 20:24:00,71.7,62.2,29.70,SSW,202,4.4,4.4,72,0.00,,SCT021,0.02,VWS V14.01,2013-06-01 01:24:00,
2013-05-31 20:27:00,71.6,62.1,29.70,SSE,158,0.0,0.0,72,0.00,,SCT021,0.02,VWS V14.01,2013-06-01 01:27:00,
2013-05-31 20:28:00,71.6,62.1,29.70,SSE,158,0.0,0.0,72,0.00,,SCT021,0.02,VWS V14.01,2013-06-01 01:28:00,
2013-05-31 20:31:00,71.4,62.3,29.70,South,180,0.0,0.0,73,0.00,,SCT021,0.02,VWS V14.01,2013-06-01 01:31:00,
2013-05-31 20:33:00,71.6,62.5,29.70,South,180,0.0,0.0,73,0.00,,SCT021,0.02,VWS V14.01,2013-06-01 01:33:00,
2013-05-31 20:34:00,71.6,62.5,29.70,South,180,0.0,0.0,73,0.00,,SCT021,0.02,VWS V14.01,2013-06-01 01:34:00,
2013-05-31 20:35:00,71.2,62.1,29.70,South,180,4.8,4.8,73,0.00,,SCT021,0.02,VWS V14.01,2013-06-01 01:35:00,
2013-05-31 20:36:00,71.2,62.1,29.70,SSE,158,4.0,4.8,73,0.00,,SCT021,0.02,VWS V14.01,2013-06-01 01:36:00,
2013-05-31 20:39:00,71.4,62.3,29.71,South,180,0.0,0.0,73,0.00,,SCT021,0.02,VWS V14.01,2013-06-01 01:39:00,
2013-05-31 20:40:00,71.4,62.3,29.71,North,0,0.0,0.0,73,0.00,,FEW020,0.02,VWS V14.01,2013-06-01 01:40:00,
2013-05-31 20:41:00,71.2,62.1,29.71,South,180,0.0,0.0,73,0.00,,FEW020,0.02,VWS V14.01,2013-06-01 01:41:00,
2013-05-31 20:44:00,71.2,62.5,29.71,South,180,0.0,0.0,74,0.00,,FEW020,0.02,VWS V14.01,2013-06-01 01:44:00,
2013-05-31 20:45:00,71.2,62.5,29.70,SSE,158,0.0,0.0,74,0.00,,FEW020,0.02,VWS V14.01,2013-06-01 01:45:00,
2013-05-31 20:49:00,71.2,62.5,29.70,South,180,0.0,0.0,74,0.00,,FEW020,0.02,VWS V14.01,2013-06-01 01:49:00,
2013-05-31 20:52:00,71.0,62.3,29.70,SSW,202,0.0,0.0,74,0.00,,FEW020,0.02,VWS V14.01,2013-06-01 01:52:00,
2013-05-31 20:53:00,71.0,62.3,29.70,South,180,7.6,7.6,74,0.00,,FEW020,0.02,VWS V14.01,2013-06-01 01:53:00,
2013-05-31 20:56:00,71.0,62.3,29.70,South,180,0.0,0.0,74,0.00,,FEW020,0.02,VWS V14.01,2013-06-01 01:56:00,
2013-05-31 20:58:00,71.0,62.3,29.70,South,180,0.0,0.0,74,0.00,,FEW020,0.02,VWS V14.01,2013-06-01 01:58:00,
2013-05-31 20:59:00,71.0,62.7,29.70,South,180,0.0,0.0,75,0.00,,FEW020,0.02,VWS V14.01,2013-06-01 01:59:00,
2013-05-31 21:01:00,71.0,62.7,29.70,SE,135,0.0,0.0,75,0.00,,FEW020,0.02,VWS V14.01,2013-06-01 02:01:00,
2013-05-31 21:02:00,71.0,62.7,29.70,SSE,158,0.0,0.0,75,0.00,,FEW020,0.02,VWS V14.01,2013-06-01 02:02:00,
2013-05-31 21:04:00,71.0,62.7,29.70,SSE,158,0.0,1.2,75,0.00,,FEW020,0.02,VWS V14.01,2013-06-01 02:04:00,
2013-05-31 21:07:00,71.0,62.7,29.70,South,180,0.0,0.0,75,0.00,,FEW020,0.02,VWS V14.01,2013-06-01 02:07:00,
2013-05-31 21:08:00,70.8,62.5,29.70,South,180,0.0,0.0,75,0.00,,FEW020,0.02,VWS V14.01,2013-06-01 02:08:00,
2013-05-31 21:09:00,71.0,63.1,29.70,South,180,0.0,0.0,76,0.00,,FEW020,0.02,VWS V14.01,2013-06-01 02:09:00,
2013-05-31 21:10:00,70.8,62.9,29.70,South,180,0.0,0.0,76,0.00,,FEW020,0.02,VWS V14.01,2013-06-01 02:10:00,
2013-05-31 21:13:00,71.0,63.1,29.71,South,180,0.0,0.0,76,0.00,,FEW020,0.02,VWS V14.01,2013-06-01 02:13:00,
2013-05-31 21:14:00,71.0,63.1,29.71,South,180,0.0,0.0,76,0.00,,FEW020,0.02,VWS V14.01,2013-06-01 02:14:00,
2013-05-31 21:16:00,71.0,63.1,29.71,SE,135,0.0,0.0,76,0.00,,FEW020,0.02,VWS V14.01,2013-06-01 02:16:00,
2013-05-31 21:17:00,70.8,62.9,29.71,SW,225,0.0,0.0,76,0.00,,FEW020,0.02,VWS V14.01,2013-06-01 02:17:00,
2013-05-31 21:21:00,70.8,62.9,29.72,South,180,0.0,0.0,76,0.00,,FEW020,0.02,VWS V14.01,2013-06-01 02:21:00,
2013-05-31 21:22:00,70.8,63.2,29.72,South,180,0.0,0.0,77,0.00,,FEW020,0.02,VWS V14.01,2013-06-01 02:22:00,
2013-05-31 21:27:00,71.0,63.4,29.71,South,180,0.0,0.0,77,0.00,,FEW020,0.02,VWS V14.01,2013-06-01 02:27:00,
2013-05-31 21:28:00,70.8,63.2,29.71,South,180,0.0,0.0,77,0.00,,FEW020,0.02,VWS V14.01,2013-06-01 02:28:00,
2013-05-31 21:29:00,70.8,63.2,29.71,South,180,0.0,0.0,77,0.00,,FEW020,0.02,VWS V14.01,2013-06-01 02:29:00,
2013-05-31 21:32:00,70.8,63.2,29.71,South,180,0.0,0.0,77,0.00,,FEW020,0.02,VWS V14.01,2013-06-01 02:32:00,
2013-05-31 21:34:00,70.8,63.2,29.72,South,180,0.0,0.0,77,0.00,,FEW020,0.02,VWS V14.01,2013-06-01 02:34:00,
2013-05-31 21:35:00,71.0,63.4,29.72,South,180,0.0,0.0,77,0.00,,FEW020,0.02,VWS V14.01,2013-06-01 02:35:00,
2013-05-31 21:36:00,70.8,63.2,29.72,South,180,0.0,0.0,77,0.00,,FEW020,0.02,VWS V14.01,2013-06-01 02:36:00,
2013-05-31 21:38:00,70.8,63.2,29.72,SSW,202,8.0,8.0,77,0.00,,FEW020,0.02,VWS V14.01,2013-06-01 02:38:00,
2013-05-31 21:41:00,70.8,63.2,29.72,South,180,0.0,0.0,77,0.00,,BKN020,0.02,VWS V14.01,2013-06-01 02:41:00,
2013-05-31 21:42:00,70.8,63.6,29.72,SSE,158,0.0,0.0,78,0.00,,BKN020,0.02,VWS V14.01,2013-06-01 02:42:00,
2013-05-31 21:43:00,70.8,63.6,29.72,SSE,158,0.0,0.0,78,0.00,,BKN020,0.02,VWS V14.01,2013-06-01 02:43:00,
2013-05-31 21:45:00,70.8,63.6,29.72,SE,135,0.0,0.0,78,0.00,,BKN020,0.02,VWS V14.01,2013-06-01 02:45:00,
2013-05-31 21:46:00,70.8,63.6,29.72,SE,135,0.0,0.0,78,0.00,,BKN020,0.02,VWS V14.01,2013-06-01 02:46:00,
2013-05-31 21:47:00,70.8,63.6,29.72,SE,135,0.0,0.0,78,0.00,,BKN020,0.02,VWS V14.01,2013-06-01 02:47:00,
2013-05-31 21:48:00,70.8,63.6,29.72,SE,135,0.0,0.0,78,0.00,,BKN020,0.02,VWS V14.01,2013-06-01 02:48:00,
2013-05-31 21:52:00,70.8,63.6,29.72,South,180,0.0,0.0,78,0.00,,BKN020,0.02,VWS V14.01,2013-06-01 02:52:00,
2013-05-31 21:53:00,70.7,63.5,29.72,South,180,0.0,0.0,78,0.00,,BKN020,0.02,VWS V14.01,2013-06-01 02:53:00,
2013-05-31 21:54:00,70.8,63.6,29.72,South,180,0.0,0.0,78,0.00,,BKN020,0.02,VWS V14.01,2013-06-01 02:54:00,
2013-05-31 21:57:00,70.8,63.6,29.72,SW,225,0.0,0.0,78,0.00,,BKN020,0.02,VWS V14.01,2013-06-01 02:57:00,
2013-05-31 21:58:00,70.8,64.0,29.72,SW,225,0.0,0.0,79,0.00,,BKN020,0.02,VWS V14.01,2013-06-01 02:58:00,
2013-05-31 21:59:00,70.8,64.0,29.72,North,0,0.0,0.0,79,0.00,,BKN020,0.02,VWS V14.01,2013-06-01 02:59:00,
2013-05-31 22:00:00,70.8,64.0,29.72,South,180,5.2,5.2,79,0.00,,BKN020,0.02,VWS V14.01,2013-06-01 03:00:00,
2013-05-31 22:02:00,70.8,64.0,29.72,South,180,0.0,0.0,79,0.00,,BKN020,0.02,VWS V14.01,2013-06-01 03:02:00,
2013-05-31 22:04:00,70.8,64.0,29.72,SSE,158,0.0,0.0,79,0.00,,BKN020,0.02,VWS V14.01,2013-06-01 03:04:00,
2013-05-31 22:08:00,70.8,64.0,29.72,WSW,248,0.0,6.2,79,0.00,,BKN020,0.02,VWS V14.01,2013-06-01 03:08:00,
2013-05-31 22:09:00,71.0,64.2,29.72,SSE,158,0.0,0.0,79,0.00,,BKN020,0.02,VWS V14.01,2013-06-01 03:09:00,
2013-05-31 22:10:00,70.8,64.0,29.72,South,180,2.2,2.2,79,0.00,,BKN020,0.02,VWS V14.01,2013-06-01 03:10:00,
2013-05-31 22:12:00,71.0,64.2,29.72,South,180,0.0,0.0,79,0.00,,BKN020,0.02,VWS V14.01,2013-06-01 03:12:00,
2013-05-31 22:13:00,71.0,64.2,29.72,South,180,0.0,0.0,79,0.00,,BKN020,0.02,VWS V14.01,2013-06-01 03:13:00,
2013-05-31 22:16:00,71.0,64.5,29.72,South,180,2.2,2.2,80,0.00,,BKN020,0.02,VWS V14.01,2013-06-01 03:16:00,
2013-05-31 22:18:00,71.0,64.2,29.72,SSE,158,0.0,0.0,79,0.00,,BKN020,0.02,VWS V14.01,2013-06-01 03:18:00,
2013-05-31 22:20:00,70.8,64.3,29.72,South,180,1.6,1.6,80,0.00,,BKN020,0.02,VWS V14.01,2013-06-01 03:20:00,
2013-05-31 22:22:00,71.0,64.2,29.72,South,180,3.4,3.4,79,0.00,,BKN020,0.02,VWS V14.01,2013-06-01 03:22:00,
2013-05-31 22:23:00,71.0,64.2,29.72,SSW,202,0.0,0.0,79,0.00,,BKN020,0.02,VWS V14.01,2013-06-01 03:23:00,
2013-05-31 22:24:00,71.0,64.2,29.71,South,180,0.0,0.0,79,0.00,,BKN020,0.02,VWS V14.01,2013-06-01 03:24:00,
2013-05-31 22:26:00,71.0,64.2,29.71,South,180,0.0,0.0,79,0.00,,BKN020,0.02,VWS V14.01,2013-06-01 03:26:00,
2013-05-31 22:28:00,71.0,64.2,29.71,South,180,0.0,0.0,79,0.00,,BKN020,0.02,VWS V14.01,2013-06-01 03:28:00,
2013-05-31 22:30:00,71.0,64.5,29.70,South,180,0.0,8.4,80,0.00,,BKN020,0.02,VWS V14.01,2013-06-01 03:30:00,
2013-05-31 22:33:00,71.0,64.2,29.70,SSE,158,0.0,0.0,79,0.00,,BKN020,0.02,VWS V14.01,2013-06-01 03:33:00,
2013-05-31 22:34:00,71.0,64.5,29.70,SSE,158,0.0,0.0,80,0.00,,BKN020,0.02,VWS V14.01,2013-06-01 03:34:00,
2013-05-31 22:35:00,71.0,64.5,29.70,South,180,0.0,0.0,80,0.00,,BKN020,0.02,VWS V14.01,2013-06-01 03:35:00,
2013-05-31 22:38:00,70.8,64.0,29.69,SSW,202,0.0,0.0,79,0.00,,BKN020,0.02,VWS V14.01,2013-06-01 03:38:00,
2013-05-31 22:39:00,70.7,64.2,29.69,SSE,158,0.0,0.0,80,0.00,,BKN020,0.02,VWS V14.01,2013-06-01 03:39:00,
2013-05-31 22:44:00,70.7,64.2,29.68,SSE,158,0.0,0.0,80,0.00,,BKN020,0.02,VWS V14.01,2013-06-01 03:44:00,
2013-05-31 22:45:00,70.7,64.2,29.69,South,180,0.0,0.0,80,0.00,,BKN020,0.02,VWS V14.01,2013-06-01 03:45:00,
2013-05-31 22:47:00,70.7,64.2,29.68,SE,135,2.6,2.6,80,0.00,,BKN020,0.02,VWS V14.01,2013-06-01 03:47:00,
2013-05-31 22:50:00,70.5,64.0,29.69,SSE,158,0.0,0.0,80,0.00,,BKN032,0.02,VWS V14.01,2013-06-01 03:50:00,
2013-05-31 22:51:00,70.7,64.2,29.69,SSE,158,0.0,0.0,80,0.00,,BKN032,0.02,VWS V14.01,2013-06-01 03:51:00,
2013-05-31 22:52:00,70.5,64.4,29.69,SSE,158,4.0,4.0,81,0.00,,BKN032,0.02,VWS V14.01,2013-06-01 03:52:00,
2013-05-31 22:53:00,70.7,64.6,29.69,South,180,0.0,0.0,81,0.00,,BKN032,0.02,VWS V14.01,2013-06-01 03:53:00,
2013-05-31 22:56:00,70.5,64.4,29.68,South,180,0.0,4.0,81,0.00,,BKN032,0.02,VWS V14.01,2013-06-01 03:56:00,
2013-05-31 22:58:00,70.5,64.4,29.68,SE,135,0.0,0.0,81,0.00,,BKN032,0.02,VWS V14.01,2013-06-01 03:58:00,
2013-05-31 23:01:00,70.3,64.2,29.68,SSW,202,0.0,0.0,81,0.00,,BKN032,0.02,VWS V14.01,2013-06-01 04:01:00,
2013-05-31 23:02:00,70.5,64.4,29.68,South,180,0.0,0.0,81,0.00,,BKN032,0.02,VWS V14.01,2013-06-01 04:02:00,
2013-05-31 23:04:00,70.5,64.4,29.68,SSW,202,0.0,0.0,81,0.00,,BKN032,0.02,VWS V14.01,2013-06-01 04:04:00,
2013-05-31 23:05:00,70.3,64.2,29.68,South,180,0.0,0.0,81,0.00,,BKN032,0.02,VWS V14.01,2013-06-01 04:05:00,
2013-05-31 23:06:00,70.3,64.2,29.68,South,180,0.0,6.6,81,0.00,,BKN032,0.02,VWS V14.01,2013-06-01 04:06:00,
2013-05-31 23:09:00,70.1,64.0,29.69,SSE,158,0.0,0.0,81,0.00,,BKN032,0.02,VWS V14.01,2013-06-01 04:09:00,
2013-05-31 23:10:00,70.1,63.7,29.69,South,180,0.0,0.0,80,0.00,,BKN032,0.02,VWS V14.01,2013-06-01 04:10:00,
2013-05-31 23:13:00,70.3,63.8,29.69,South,180,0.0,0.0,80,0.00,,BKN032,0.02,VWS V14.01,2013-06-01 04:13:00,
2013-05-31 23:14:00,70.1,63.7,29.70,SSW,202,1.6,1.6,80,0.00,,BKN032,0.02,VWS V14.01,2013-06-01 04:14:00,
2013-05-31 23:16:00,70.1,63.7,29.70,South,180,0.0,0.0,80,0.00,,BKN032,0.02,VWS V14.01,2013-06-01 04:16:00,
2013-05-31 23:19:00,70.1,63.7,29.69,SSE,158,0.0,0.0,80,0.00,,BKN032,0.02,VWS V14.01,2013-06-01 04:19:00,
2013-05-31 23:22:00,69.9,63.5,29.70,South,180,0.0,0.0,80,0.00,,BKN032,0.02,VWS V14.01,2013-06-01 04:22:00,
2013-05-31 23:24:00,69.9,63.5,29.70,South,180,0.0,0.0,80,0.00,,BKN032,0.02,VWS V14.01,2013-06-01 04:24:00,
2013-05-31 23:27:00,69.9,63.5,29.70,South,180,0.0,0.0,80,0.00,,BKN032,0.02,VWS V14.01,2013-06-01 04:27:00,
2013-05-31 23:28:00,69.9,63.5,29.70,South,180,0.0,0.0,80,0.00,,BKN032,0.02,VWS V14.01,2013-06-01 04:28:00,
2013-05-31 23:29:00,69.9,63.5,29.70,South,180,0.0,0.0,80,0.00,,BKN032,0.02,VWS V14.01,2013-06-01 04:29:00,
2013-05-31 23:30:00,69.9,63.5,29.70,South,180,0.0,0.0,80,0.00,,BKN032,0.02,VWS V14.01,2013-06-01 04:30:00,
2013-05-31 23:34:00,69.9,63.5,29.70,West,270,0.0,7.6,80,0.00,,BKN032,0.02,VWS V14.01,2013-06-01 04:34:00,
2013-05-31 23:35:00,69.9,63.5,29.70,West,270,0.0,0.0,80,0.00,,BKN032,0.02,VWS V14.01,2013-06-01 04:35:00,
2013-05-31 23:36:00,69.9,63.5,29.70,South,180,0.0,0.0,80,0.00,,BKN032,0.02,VWS V14.01,2013-06-01 04:36:00,
2013-05-31 23:38:00,69.9,63.5,29.70,South,180,0.0,0.0,80,0.00,,BKN032,0.02,VWS V14.01,2013-06-01 04:38:00,
2013-05-31 23:39:00,69.9,63.5,29.70,WSW,248,0.0,0.0,80,0.00,,BKN032,0.02,VWS V14.01,2013-06-01 04:39:00,
2013-05-31 23:40:00,69.8,63.4,29.70,SSE,158,0.0,0.0,80,0.00,,CLR,0.02,VWS V14.01,2013-06-01 04:40:00,
2013-05-31 23:42:00,69.9,63.8,29.70,West,270,0.0,0.0,81,0.00,,CLR,0.02,VWS V14.01,2013-06-01 04:42:00,
2013-05-31 23:44:00,69.9,63.5,29.70,West,270,0.0,0.0,80,0.00,,CLR,0.02,VWS V14.01,2013-06-01 04:44:00,
2013-05-31 23:45:00,69.9,63.5,29.70,South,180,0.0,0.0,80,0.00,,CLR,0.02,VWS V14.01,2013-06-01 04:45:00,
2013-05-31 23:46:00,69.9,63.8,29.70,WSW,248,0.0,0.0,81,0.00,,CLR,0.02,VWS V14.01,2013-06-01 04:46:00,
2013-05-31 23:48:00,69.9,63.5,29.69,South,180,4.0,4.0,80,0.00,,CLR,0.02,VWS V14.01,2013-06-01 04:48:00,
2013-05-31 23:49:00,69.9,63.8,29.69,South,180,0.0,4.0,81,0.00,,CLR,0.02,VWS V14.01,2013-06-01 04:49:00,
2013-05-31 23:50:00,69.9,63.5,29.69,WSW,248,0.0,4.0,80,0.00,,CLR,0.02,VWS V14.01,2013-06-01 04:50:00,
2013-05-31 23:52:00,69.9,63.5,29.69,SW,225,0.0,0.0,80,0.00,,CLR,0.02,VWS V14.01,2013-06-01 04:52:00,
2013-05-31 23:54:00,69.9,63.5,29.69,SW,225,0.0,0.0,80,0.00,,CLR,0.02,VWS V14.01,2013-06-01 04:54:00,
2013-05-31 23:56:00,70.1,63.7,29.69,West,270,0.0,1.2,80,0.00,,CLR,0.02,VWS V14.01,2013-06-01 04:56:00,
2013-05-31 23:58:00,70.1,63.7,29.68,West,270,0.0,0.0,80,0.00,,CLR,0.02,VWS V14.01,2013-06-01 04:58:00,
2013-05-31 23:59:00,70.1,63.7,29.68,South,180,0.0,0.0,80,0.00,,CLR,0.02,VWS V14.01,2013-06-01 04:59:00,